GFSSGP_850_rhum_000.txt.gz
RH
5 6 9 15 10 12 20 22 24 37 36 44 44 34 38 52 41 46 73 74 68 85 89 80 66 68 68 74 80 83 80 81 80 79 82 84 81 80 80 79 75 72 67 58 56 52 51 57 60
6 8 12 11 10 14 19 21 25 31 43 44 45 45 38 46 64 73 67 59 66 77 95 94 63 65 70 76 80 78 78 82 80 77 79 81 80 78 79 78 71 61 56 56 60 58 56 58 55
8 10 9 9 10 15 19 19 34 41 46 42 40 47 48 47 58 57 62 39 62 69 77 56 55 58 53 58 67 70 75 74 69 60 70 76 70 76 78 71 65 54 48 44 39 50 65 64 65
13 10 13 11 14 21 20 26 30 36 44 44 32 36 57 67 60 63 68 43 63 68 74 35 33 34 34 36 36 40 57 62 64 56 54 52 49 48 48 45 40 37 37 41 46 57 75 79 69
9 10 13 14 17 22 22 27 32 28 32 38 39 39 48 74 83 73 71 52 58 55 27 24 25 27 30 30 31 33 37 43 47 45 43 40 44 46 44 38 32 23 25 34 46 57 63 60 52
8 12 13 16 22 25 26 32 28 24 30 38 35 34 46 77 71 70 44 52 56 31 21 24 26 27 27 28 29 33 36 39 39 38 37 37 38 41 40 38 26 11 15 22 29 39 48 49 48
8 10 11 14 19 19 18 22 21 21 23 26 34 27 56 73 66 61 63 51 23 32 41 41 34 30 28 28 30 33 40 40 38 40 40 38 38 38 39 36 26 16 19 25 29 32 29 27 28
8 7 10 11 11 10 8 10 15 16 20 39 34 23 39 57 73 71 60 58 56 46 61 43 40 28 26 27 26 28 32 38 41 42 44 39 38 38 38 32 16 16 20 23 24 24 27 24 22
9 7 8 8 8 8 8 8 10 19 23 29 30 27 39 63 80 80 72 65 65 66 46 46 48 30 26 24 20 17 22 30 33 35 44 45 56 40 39 27 18 17 23 27 30 28 26 26 18
7 7 8 7 7 7 8 7 10 13 14 16 23 40 54 73 77 74 69 60 68 67 55 49 49 32 26 24 25 22 20 56 44 53 42 50 39 42 35 30 23 22 29 25 23 26 27 31 57
10 8 8 9 9 8 8 8 9 8 9 10 13 26 54 66 68 64 60 51 59 64 67 57 57 31 27 29 52 70 71 63 71 39 49 70 50 82 85 89 87 76 47 63 44 34 64 34 30
11 12 9 10 11 10 9 10 10 9 8 12 16 24 44 55 53 51 49 48 50 55 66 75 60 29 28 54 66 69 69 72 77 85 45 78 86 89 88 83 80 79 80 50 74 80 26 28 29
11 12 14 14 13 13 14 12 13 12 11 13 18 31 38 41 44 48 46 43 45 54 70 84 67 28 27 26 69 62 58 73 64 80 82 66 80 82 77 72 67 70 77 80 84 81 66 32 30
16 14 15 16 16 16 15 14 14 12 14 14 16 24 32 37 37 42 47 48 52 58 69 85 66 26 24 42 31 56 40 50 61 66 63 31 39 67 64 61 58 59 62 69 74 69 48 44 32
16 15 14 16 16 16 15 13 11 13 14 14 14 16 27 34 34 35 38 43 45 48 62 77 61 25 23 29 28 30 40 28 57 55 31 31 33 46 38 58 58 58 61 62 72 57 42 32 44
12 12 13 16 15 18 15 13 12 18 18 13 17 16 23 32 36 34 37 43 49 55 64 69 44 28 24 30 32 44 54 37 54 41 35 35 34 34 36 61 60 57 54 65 68 68 65 62 52
12 11 12 16 18 18 16 14 14 17 18 17 16 16 15 26 38 45 56 54 49 51 60 64 49 40 41 32 44 34 34 43 48 41 46 40 37 37 37 42 50 48 51 50 62 66 65 61 52
13 12 13 14 15 16 18 17 14 18 19 20 18 18 16 22 37 43 43 45 44 31 46 59 43 43 31 42 34 35 34 36 34 37 38 38 40 41 42 44 43 54 73 67 63 66 63 60 54
16 16 16 15 20 26 23 16 16 18 18 18 19 17 20 27 34 40 40 25 28 34 53 57 52 27 31 40 40 40 42 43 46 48 39 41 43 43 43 42 52 49 63 65 49 67 70 73 65
18 18 18 20 22 26 20 18 16 18 21 22 20 20 22 24 27 32 31 32 44 54 54 50 37 31 32 38 34 37 40 49 41 47 42 42 41 37 31 40 49 55 57 63 67 72 70 72 72
22 21 26 26 23 24 22 21 19 18 20 21 22 23 24 24 27 31 37 37 36 35 37 36 32 32 34 40 48 49 48 48 48 47 43 35 32 24 21 26 26 28 48 54 59 63 66 62 65
24 25 31 29 28 22 24 22 25 19 20 20 23 25 27 27 28 31 34 40 32 30 31 32 37 42 42 41 44 42 51 49 42 47 52 38 30 17 12 12 13 15 29 56 57 52 61 64 60
32 34 32 32 28 29 26 21 27 22 23 23 24 28 30 33 37 41 44 46 49 46 42 44 52 47 42 42 44 48 46 55 58 58 52 44 40 30 16 14 17 24 36 55 45 55 72 75 72
31 33 33 33 33 39 33 29 30 28 28 25 28 35 38 40 38 46 48 49 52 56 46 46 50 51 43 45 45 41 50 65 60 52 47 43 47 47 53 32 31 46 53 71 73 79 85 92 96
26 29 35 46 44 40 34 31 36 30 28 30 34 38 43 47 46 45 47 48 54 53 44 45 45 54 55 55 53 51 46 55 55 54 52 56 52 53 60 45 76 73 82 85 89 95 99 99 99
35 36 47 49 46 37 31 31 33 29 32 35 37 41 42 45 47 47 47 49 56 52 45 45 50 59 59 53 47 40 54 63 61 62 59 55 58 61 53 82 85 86 88 92 95 100 98 99 100
35 43 39 54 78 63 33 34 32 30 30 32 35 39 42 43 45 46 48 51 57 64 65 54 51 54 57 56 63 53 69 70 57 44 54 66 62 73 85 93 87 80 87 90 98 100 91 94 95
34 36 42 39 69 42 24 27 26 37 33 32 33 38 42 43 44 45 46 53 59 60 62 55 59 69 71 73 66 70 58 59 51 66 75 76 83 90 87 83 82 85 92 100 95 90 92 95 83
40 42 41 37 47 49 51 29 31 31 30 32 34 35 40 45 45 47 50 53 56 65 69 73 77 79 76 68 67 69 71 71 74 79 84 89 91 87 83 85 92 98 99 93 94 96 97 84 80
38 40 38 43 47 53 60 46 29 29 30 34 35 37 42 49 48 49 52 57 64 70 74 76 79 69 55 54 69 76 75 76 79 87 94 100 100 99 99 98 96 96 95 98 99 94 84 72 66

GFSSGP_850_rhum_003.txt.gz
RH
2 5 13 15 11 9 16 19 17 22 25 28 26 25 25 33 38 51 52 56 68 73 87 78 70 78 82 83 86 87 88 85 85 88 88 82 85 80 78 75 73 75 72 65 57 53 52 51 55
18 14 15 11 11 11 16 15 18 20 24 24 22 22 22 33 46 52 49 54 66 77 83 93 64 66 74 81 85 82 82 84 83 82 79 80 79 79 78 76 71 66 66 53 40 36 36 47 60
9 16 10 7 8 10 16 14 21 22 24 22 21 23 26 34 39 41 48 56 67 70 78 65 58 64 78 79 74 75 78 74 70 67 68 70 64 55 58 56 49 44 40 37 38 44 56 71 70
14 9 9 9 12 13 13 18 19 21 25 24 19 25 40 36 39 46 50 52 55 62 73 44 45 47 48 56 60 68 73 78 76 63 57 53 47 44 45 44 42 33 22 26 42 59 65 70 79
12 8 9 10 14 14 16 17 18 19 20 21 20 21 37 53 52 48 47 46 48 50 57 30 24 28 33 36 37 44 45 45 50 53 49 46 44 44 44 38 35 17 12 20 25 32 43 54 52
8 8 11 14 15 17 18 20 18 16 18 19 19 23 37 52 49 50 48 44 42 52 60 25 24 24 24 27 33 36 39 43 46 44 43 41 43 42 41 40 32 17 17 23 24 27 29 27 25
9 10 11 14 18 18 18 17 14 13 15 16 18 20 38 43 50 52 45 40 38 49 58 62 49 26 26 28 31 33 39 38 38 40 41 41 41 39 39 36 20 14 18 23 26 26 25 26 24
8 8 10 11 14 14 11 12 13 13 15 17 16 18 31 44 52 50 44 40 40 46 58 64 66 66 75 37 17 22 27 32 39 42 46 45 43 52 39 37 24 15 18 26 26 27 28 26 24
7 8 9 8 8 8 7 6 7 10 15 16 17 25 25 50 57 50 45 40 44 50 61 61 65 66 68 63 28 25 25 32 41 44 45 49 79 82 80 74 39 24 21 33 29 22 23 26 39
6 6 6 5 5 6 6 6 6 10 12 11 17 24 35 50 53 47 40 39 46 56 56 67 72 68 64 54 66 64 62 78 82 84 86 76 84 81 72 77 68 62 57 52 62 48 41 62 68
6 7 6 6 5 4 4 5 6 6 8 9 13 18 33 42 44 43 41 38 43 49 50 60 69 62 62 58 61 58 60 68 73 86 88 83 83 80 78 77 75 80 82 81 80 84 82 70 33
8 6 6 6 7 6 6 6 7 6 6 8 10 20 31 40 42 42 40 36 40 44 44 61 80 48 36 60 59 60 61 63 65 71 82 80 74 74 76 70 68 63 63 75 74 75 81 83 53
7 7 7 7 8 8 9 8 9 7 8 9 13 22 30 37 38 38 38 36 37 39 43 53 68 63 61 66 67 72 73 66 60 69 70 70 72 74 69 65 60 56 56 59 64 65 65 62 55
8 9 10 11 11 12 12 10 11 10 10 9 12 17 24 28 31 33 36 34 35 37 48 54 63 65 54 58 72 74 68 61 59 58 52 39 68 69 66 60 56 54 54 56 60 63 65 58 51
10 11 11 11 12 11 12 11 10 10 11 10 10 12 18 23 26 29 34 34 37 38 43 57 61 61 53 59 63 56 49 48 52 52 58 55 46 60 64 62 61 57 56 59 60 61 63 66 60
10 10 12 11 12 13 12 13 9 11 12 11 12 11 14 20 23 24 30 34 36 36 40 52 58 54 51 55 50 50 50 54 54 53 53 61 66 66 66 61 58 57 60 61 58 57 59 58 57
10 11 10 14 12 12 11 11 12 13 13 12 11 12 12 15 22 25 27 30 34 37 40 47 60 44 46 57 51 56 57 54 45 47 46 50 55 57 60 59 58 60 64 64 62 59 57 56 56
11 9 8 9 12 10 10 11 11 14 14 13 11 12 12 13 21 27 35 34 35 37 40 45 57 40 47 51 55 46 47 47 45 45 48 54 55 64 65 64 65 65 64 61 58 61 61 62 61
11 11 11 11 13 14 15 11 13 14 14 14 13 14 14 14 22 35 34 36 40 46 40 40 49 50 47 44 43 39 39 42 46 48 54 60 58 53 57 56 54 57 56 55 59 59 61 63 61
14 14 14 14 14 15 14 13 14 15 16 15 15 17 20 25 28 32 35 38 37 48 46 50 52 47 41 40 46 47 46 49 52 50 51 51 55 50 47 46 52 50 49 52 53 55 58 60 58
17 17 21 20 16 14 15 16 16 15 16 17 19 20 20 22 26 32 37 45 50 51 49 46 47 51 50 46 46 47 46 45 45 48 51 53 60 54 52 50 52 55 55 51 49 50 51 54 55
21 20 22 21 20 19 15 18 18 16 17 18 21 23 22 23 25 27 33 40 50 52 51 50 50 49 50 41 51 55 54 53 57 56 57 56 52 47 47 48 56 64 59 56 53 47 52 55 60
26 25 24 22 21 19 17 16 24 16 19 20 23 25 27 29 31 34 38 42 48 56 58 54 52 53 55 55 59 62 64 67 68 65 58 54 46 48 48 51 56 61 58 61 67 69 76 75 71
23 25 24 25 22 30 23 21 23 21 23 23 26 30 31 31 36 38 41 44 51 57 58 56 50 52 58 57 62 62 55 55 61 54 53 48 53 51 51 53 61 64 66 70 72 73 79 88 94
20 23 34 39 36 36 24 21 29 24 23 24 28 30 35 38 37 37 39 42 50 53 56 53 51 49 52 59 58 55 54 56 56 56 55 59 54 54 57 64 70 69 68 69 76 77 85 92 95
25 28 44 41 38 30 23 22 27 23 26 28 29 32 35 39 42 42 43 46 48 52 54 60 58 55 50 56 56 57 58 60 60 62 65 63 62 61 62 69 74 72 73 73 82 90 94 97 98
28 33 27 44 55 53 22 21 24 24 25 26 29 32 34 37 39 42 42 45 52 53 54 60 61 58 59 63 61 62 62 64 67 68 67 64 66 63 62 67 69 72 75 87 92 92 96 97 99
29 26 38 32 58 36 19 17 27 31 26 26 25 29 32 36 37 38 40 43 49 50 53 57 64 62 63 63 62 62 66 69 65 64 65 68 68 69 76 76 91 93 97 93 95 98 95 97 98
30 33 32 25 35 44 40 27 25 25 26 27 28 28 30 32 36 38 42 46 49 49 56 60 64 70 65 64 67 68 68 65 64 64 68 80 90 86 95 78 86 89 91 91 94 99 96 96 97
29 31 29 40 37 39 49 44 23 24 24 27 29 31 34 37 40 41 42 46 51 58 59 62 71 77 74 73 68 62 63 66 63 69 82 88 94 100 99 97 91 93 97 97 96 99 93 85 84

GFSSGP_850_rhum_006.txt.gz
RH
1 4 10 16 18 15 13 16 18 22 23 22 24 21 29 40 46 59 50 59 72 72 70 72 76 79 80 82 82 83 83 86 88 91 88 84 80 77 76 74 73 70 66 58 45 37 31 28 30
5 16 14 14 18 16 14 16 19 22 20 17 18 18 27 38 44 47 52 62 69 85 92 68 71 68 74 82 82 78 82 82 81 77 73 65 64 58 52 49 48 44 39 35 31 32 36 40 48
11 17 13 16 14 13 18 16 22 19 17 17 20 31 29 34 41 45 55 63 75 82 80 58 62 70 73 75 75 77 75 73 70 70 62 54 48 43 41 41 40 34 21 14 18 26 38 47 57
14 14 12 13 12 12 14 20 18 18 21 19 21 30 32 35 43 46 53 59 61 68 49 49 44 43 54 57 64 67 69 71 66 56 54 46 42 43 43 41 37 26 10 19 22 23 27 38 48
20 14 13 13 14 14 16 16 16 17 18 18 18 33 41 46 42 43 45 50 54 48 27 24 24 28 33 34 34 36 39 44 45 45 44 41 41 43 41 40 36 20 16 22 23 24 25 24 22
13 9 15 14 16 15 15 15 16 20 18 16 18 30 44 44 41 41 40 41 49 55 24 22 22 22 22 24 29 35 39 42 42 40 41 40 41 38 36 38 28 17 17 22 24 24 25 24 24
16 15 14 14 16 18 18 17 14 13 14 14 17 31 40 41 46 40 37 38 51 55 32 25 24 22 22 25 29 28 32 36 34 36 40 40 38 43 34 34 25 15 15 21 25 26 22 21 21
11 11 12 15 16 16 13 13 12 12 16 14 15 24 33 45 46 41 37 36 44 55 59 64 56 40 62 36 11 16 21 26 32 41 44 53 82 77 80 64 54 35 25 29 38 35 27 22 22
8 10 13 11 11 10 9 7 8 9 15 14 20 20 34 46 47 42 38 37 41 51 59 60 63 64 65 60 37 38 47 66 67 81 60 82 78 78 71 70 74 69 69 61 56 56 56 53 50
7 9 8 5 6 6 6 6 6 8 12 13 18 30 47 50 47 42 38 36 43 53 58 66 66 65 49 54 64 63 68 67 76 78 78 84 75 80 76 80 76 74 73 71 75 72 77 78 56
6 8 6 5 6 5 5 5 5 8 9 10 16 22 44 50 46 40 35 35 44 52 54 61 68 58 62 54 62 61 64 64 71 83 69 78 71 78 76 73 69 68 63 70 66 77 77 77 53
7 6 5 5 5 5 4 5 5 6 7 9 13 18 38 40 39 39 35 35 40 47 50 66 61 36 44 64 60 61 61 62 65 67 79 71 71 67 54 65 51 58 56 57 61 63 66 66 66
7 6 6 6 6 7 8 7 8 6 8 9 12 22 32 36 38 38 37 36 37 44 46 54 49 48 49 34 64 61 58 68 54 68 66 34 40 45 46 54 53 55 54 54 56 57 60 60 57
6 6 6 7 9 9 9 8 10 8 7 8 12 20 27 33 35 36 36 34 37 39 44 56 64 51 55 62 65 71 58 58 57 57 56 37 36 38 38 35 43 54 56 56 56 59 61 62 64
8 9 9 10 10 10 9 11 10 10 9 9 10 13 20 26 28 31 32 33 34 33 38 60 55 69 53 57 60 58 52 43 53 53 55 56 54 40 36 38 52 59 58 58 56 60 59 58 59
9 9 12 10 10 11 11 14 9 10 10 10 10 10 12 20 23 26 31 32 32 37 43 76 84 64 54 54 54 50 51 54 54 53 51 53 59 57 54 56 52 57 58 54 61 59 60 62 59
11 12 13 14 10 11 11 14 9 11 12 11 10 11 11 12 20 23 28 31 33 34 39 58 64 57 51 49 49 54 54 52 49 45 46 47 52 54 56 49 46 45 53 56 65 65 64 69 65
15 10 9 9 11 9 9 10 11 12 12 12 11 10 12 12 15 23 25 27 31 33 37 44 55 47 57 53 52 48 46 45 46 46 49 53 55 61 48 50 47 53 56 58 59 61 60 52 51
10 9 10 12 12 12 11 12 12 12 12 13 13 13 13 15 26 35 38 35 36 41 41 42 56 49 50 50 46 42 41 42 46 50 53 52 51 52 50 53 54 52 52 53 52 48 47 49 53
11 12 12 12 12 12 13 12 13 14 15 15 15 17 22 27 31 34 37 40 43 48 55 54 55 48 43 42 45 46 46 47 49 51 49 52 56 58 62 54 47 51 52 51 53 58 58 54 49
14 16 22 20 16 13 13 15 16 15 16 18 20 20 23 26 32 37 46 51 52 50 47 48 50 49 46 45 48 50 49 48 48 47 51 56 58 61 53 48 48 50 52 51 37 44 51 59 59
20 21 21 19 19 20 13 20 18 17 19 20 22 23 23 24 27 33 43 52 53 50 48 50 50 49 44 42 41 45 52 55 58 55 64 56 58 52 50 48 50 52 56 55 62 66 62 61 68
24 22 21 20 21 19 16 21 22 17 20 23 24 25 28 32 33 37 42 50 57 58 55 53 52 53 53 53 56 64 67 64 55 55 57 55 53 52 50 50 52 53 55 54 68 71 68 73 78
21 23 21 22 24 42 19 22 33 23 23 25 26 29 30 32 36 39 43 49 56 59 58 55 47 50 51 56 62 61 52 52 57 59 58 58 57 52 51 54 56 62 68 68 70 77 82 81 80
19 24 46 59 52 51 24 22 32 24 24 24 26 30 35 37 36 37 39 44 50 53 54 55 57 56 52 51 54 57 58 60 61 62 63 63 52 65 62 62 62 68 73 74 76 75 75 79 77
24 25 60 53 61 44 20 21 32 24 25 26 28 30 33 38 40 41 42 45 47 50 51 54 59 59 57 58 61 62 64 64 66 67 67 61 67 66 65 69 69 76 74 71 71 77 78 83 78
29 34 23 42 56 61 25 28 26 24 25 25 27 29 31 34 37 39 40 43 46 48 48 52 56 63 62 63 64 64 63 67 73 68 64 65 71 72 75 74 67 82 78 80 82 85 89 84 86
24 21 38 48 61 44 25 27 43 30 28 25 24 26 28 33 36 40 39 42 45 49 52 56 59 64 67 67 64 63 67 68 68 66 65 68 73 72 66 93 85 98 100 100 99 97 92 89 92
28 30 29 25 41 52 51 33 22 26 25 26 26 27 29 32 35 39 44 48 51 54 57 59 61 69 71 73 73 69 66 64 67 64 68 76 74 59 66 71 69 81 86 79 76 78 75 79 74
24 28 26 61 43 53 57 42 24 26 31 30 30 34 36 41 46 48 53 54 55 58 61 67 72 75 76 75 76 69 64 64 67 70 76 72 78 83 85 78 75 69 67 63 67 66 69 66 81

GFSSGP_850_rhum_009.txt.gz
RH
1 3 13 16 23 24 22 17 27 29 29 30 37 46 52 50 55 79 79 71 71 76 77 74 75 76 74 77 82 81 78 80 82 82 76 67 60 54 51 46 41 38 34 32 28 25 24 24 26
2 14 14 16 25 26 24 26 28 24 21 30 34 40 47 54 54 79 82 71 68 75 74 74 73 72 73 76 74 69 74 77 72 64 58 53 45 40 38 36 35 31 22 12 11 13 18 27 38
9 16 16 21 23 24 30 25 23 18 19 25 34 38 44 50 49 66 72 61 64 74 67 67 63 65 65 67 64 65 63 62 59 54 46 42 38 37 36 37 34 26 12 17 17 16 16 20 27
14 17 14 17 18 16 27 24 21 22 22 30 33 49 45 49 58 69 76 73 72 71 54 56 54 48 49 45 49 50 47 46 45 43 39 38 38 37 37 37 35 20 15 19 19 19 19 20 20
19 17 18 18 18 27 21 18 19 25 21 37 42 48 46 48 55 61 65 62 48 44 32 27 27 28 29 32 32 36 40 37 36 36 36 35 36 35 34 37 29 18 16 20 19 19 19 19 19
17 13 19 19 18 20 19 16 20 26 22 39 48 47 42 44 46 51 54 53 24 20 21 22 23 23 24 27 29 30 30 32 32 31 33 35 35 36 34 34 21 16 16 18 20 23 25 24 21
19 21 20 18 20 25 19 14 14 24 21 34 45 48 43 42 41 42 47 46 30 24 23 23 22 23 22 22 22 20 21 20 21 30 37 48 69 69 66 50 46 46 39 40 37 36 36 30 28
14 17 16 15 20 20 14 11 10 15 15 25 36 46 52 43 39 38 39 51 51 37 32 32 30 50 41 10 8 12 13 18 27 31 65 75 62 66 67 76 72 71 67 58 55 50 46 45 42
16 14 15 13 16 15 11 9 7 15 15 28 25 38 46 43 40 37 42 46 58 58 56 61 55 52 60 49 29 16 33 43 51 63 72 73 74 68 74 79 71 70 62 66 55 50 48 42 46
10 15 12 8 10 10 8 7 6 12 14 40 43 45 48 44 41 37 38 41 57 57 63 63 58 50 57 54 62 59 61 62 69 56 65 74 68 78 74 74 70 68 61 62 54 54 54 54 51
9 12 7 7 6 6 6 6 7 13 16 29 49 48 46 45 42 39 37 41 48 52 61 53 42 54 58 53 64 66 66 57 74 79 64 62 78 77 74 65 55 45 54 54 57 60 61 60 61
8 6 6 6 6 5 6 5 5 7 9 14 37 46 47 44 44 39 37 39 44 54 60 57 32 36 59 59 64 60 67 62 74 67 66 52 61 57 42 46 44 53 54 55 56 56 53 56 58
8 8 6 6 7 9 7 6 7 9 10 13 23 42 42 41 42 40 36 36 40 53 58 59 39 20 31 65 66 65 65 64 62 63 61 31 37 42 42 40 40 43 52 55 56 55 54 61 60
7 6 6 6 9 9 9 9 9 9 9 14 20 37 36 37 38 38 38 37 38 49 53 62 55 41 30 48 53 49 57 60 57 58 55 42 36 34 39 38 39 48 58 60 60 59 56 62 62
7 10 9 9 10 11 10 13 13 9 8 10 21 30 31 34 37 38 36 37 36 46 52 58 66 65 57 64 54 44 62 43 54 53 53 50 53 52 51 52 53 54 51 51 48 45 55 62 61
10 13 17 13 13 11 11 18 13 10 9 9 12 13 26 29 33 36 33 34 35 38 55 62 54 50 64 59 49 47 51 50 55 56 55 57 65 58 58 59 42 44 46 50 54 54 63 63 70
14 19 18 15 12 15 15 16 12 10 10 10 10 10 10 17 26 32 32 32 33 37 43 52 58 67 63 60 51 50 52 49 49 47 48 54 55 54 58 55 46 47 48 48 58 63 64 66 63
19 17 20 20 13 10 11 14 15 12 12 13 12 13 11 18 27 33 34 37 40 43 56 61 63 66 60 51 57 52 54 49 51 50 52 53 54 54 54 55 52 54 54 49 49 53 53 52 41
14 15 21 18 13 13 13 18 20 20 19 17 27 33 37 38 39 40 42 42 43 50 66 71 59 62 57 58 55 51 49 46 49 51 52 52 50 49 50 52 54 49 49 51 50 48 44 42 50
15 24 28 18 14 13 14 18 22 21 23 25 29 34 36 40 45 48 51 53 55 60 64 69 62 51 48 47 47 46 46 47 42 41 48 49 53 55 57 57 53 49 48 48 47 46 46 32 37
27 29 27 24 20 17 17 23 24 22 22 24 25 30 33 36 43 46 50 51 49 51 50 50 50 47 45 46 45 44 42 45 48 49 52 55 48 44 53 52 50 49 49 49 48 48 46 51 59
34 28 26 24 27 30 19 37 27 28 31 30 30 32 35 44 46 47 45 47 49 51 50 49 46 44 42 41 45 51 56 60 62 66 57 56 51 52 53 52 50 42 40 52 52 51 53 74 74
30 23 26 25 31 29 27 38 28 28 36 34 31 31 34 38 43 48 47 47 49 49 48 49 50 49 52 52 57 61 65 54 53 60 60 59 58 56 55 53 43 40 44 48 58 62 67 72 78
22 29 32 30 36 59 36 41 48 43 36 36 33 33 34 36 38 42 45 48 49 48 49 53 54 57 55 55 60 59 59 59 60 60 61 61 62 60 51 49 54 59 65 74 75 76 77 76 74
29 42 72 67 74 70 41 42 48 38 34 35 41 38 38 40 40 44 49 50 50 52 53 55 55 55 55 56 61 62 63 62 63 65 66 65 57 54 59 63 66 70 71 77 80 79 81 89 89
34 38 74 64 81 67 27 48 46 33 30 30 32 33 37 39 41 42 41 42 46 48 51 53 54 56 62 62 63 65 65 65 68 73 80 62 63 67 71 75 74 62 73 84 94 90 91 96 98
35 43 25 60 61 80 47 40 33 31 31 30 29 32 39 40 40 40 47 51 54 51 54 56 58 61 63 66 67 66 68 68 82 86 67 66 68 73 77 59 51 67 61 68 78 85 80 78 90
29 24 55 64 63 52 42 50 59 42 41 32 31 32 34 39 42 46 50 51 52 54 55 56 58 62 70 72 74 72 69 69 74 68 67 68 72 75 48 48 63 68 67 69 70 66 63 66 70
38 42 37 39 62 74 80 53 39 44 42 42 37 44 46 47 49 50 52 54 57 57 57 59 60 62 64 64 60 62 69 67 64 63 65 63 57 50 60 66 65 60 54 53 52 54 57 62 68
26 34 41 75 60 77 81 60 44 45 39 39 42 44 46 47 51 55 59 59 59 59 56 55 55 60 58 56 56 71 72 70 59 53 65 51 56 64 62 62 57 50 50 50 55 56 58 59 63

GFSSGP_850_rhum_012.txt.gz
RH
6 2 8 17 22 25 25 21 28 38 46 48 46 53 60 60 59 85 92 86 72 71 77 72 71 70 69 70 75 73 72 76 74 64 49 41 34 30 29 28 26 25 21 13 12 12 17 25 37
2 15 15 17 26 28 24 26 43 39 40 44 47 52 63 85 93 97 92 83 71 71 74 75 73 73 73 73 67 63 64 57 50 43 36 33 30 29 27 24 26 24 13 15 16 15 15 18 21
6 16 16 22 26 26 28 26 28 32 32 37 43 46 50 77 82 88 75 73 77 79 80 74 71 70 68 59 50 52 45 42 38 35 34 32 30 28 25 24 29 20 14 16 17 16 18 18 19
14 16 16 18 20 17 25 27 28 36 40 43 46 50 58 69 69 70 74 75 71 71 74 67 66 60 49 44 44 39 38 35 34 32 32 32 30 29 21 29 27 18 16 17 17 18 18 18 18
20 17 20 19 20 26 23 23 22 31 46 46 44 50 56 68 65 76 79 72 69 64 62 59 48 36 35 39 40 36 36 33 30 28 31 30 29 21 22 28 21 17 18 18 20 24 26 25 23
17 14 19 21 20 25 21 24 26 43 46 46 49 50 56 72 69 78 62 46 50 40 34 31 29 30 31 32 31 30 27 28 24 24 29 27 22 28 30 32 36 40 42 43 45 42 36 33 30
19 20 20 18 21 28 19 21 24 43 48 49 43 49 50 68 65 60 54 24 22 24 25 26 26 27 25 24 22 19 19 19 19 25 23 28 39 43 45 55 53 57 49 50 49 42 42 41 38
15 18 17 15 23 23 13 15 18 31 36 43 38 51 46 51 51 50 47 25 25 26 24 28 30 23 10 7 9 12 14 17 19 26 47 49 54 58 64 59 64 62 56 56 52 45 41 42 39
16 19 18 14 18 17 10 13 17 29 42 36 37 41 42 43 46 43 42 47 43 47 49 43 40 48 45 27 14 20 26 33 31 45 48 58 54 67 59 55 61 61 52 52 52 56 56 53 50
15 18 15 11 13 12 9 9 13 29 43 51 46 43 40 39 40 39 49 57 55 59 57 48 40 51 52 57 54 51 45 48 38 49 51 47 58 71 64 60 50 44 46 50 54 56 54 55 56
11 13 8 9 10 8 7 7 12 33 44 46 49 43 40 38 38 40 49 55 57 56 55 56 25 31 52 52 59 58 60 63 68 65 49 60 65 56 48 46 37 41 46 51 51 51 54 51 57
8 8 6 7 7 7 7 7 10 13 28 31 38 45 43 41 38 37 40 48 58 56 56 61 33 35 41 55 62 59 64 62 73 69 69 56 60 59 41 39 42 45 50 52 53 52 52 51 54
9 7 6 9 8 6 5 6 7 10 20 30 38 45 43 39 39 36 36 40 54 55 62 64 38 57 54 57 62 62 65 64 70 70 62 44 34 37 42 50 55 57 60 60 62 63 59 49 52
8 7 6 7 10 9 9 10 9 12 27 42 44 44 38 35 34 38 38 39 51 55 59 61 32 33 49 66 66 66 68 68 57 51 54 52 48 46 48 50 52 53 54 52 52 54 54 50 58
7 9 9 8 10 10 11 13 12 11 26 46 43 42 38 35 37 38 39 37 44 52 56 56 48 52 47 49 60 59 58 51 50 52 54 56 56 57 57 56 54 43 42 42 43 43 47 54 54
11 15 15 13 13 11 11 16 13 10 21 43 42 42 38 37 38 38 38 41 39 49 53 55 45 44 47 57 59 55 58 51 51 56 57 58 61 63 60 59 54 50 44 43 47 50 49 52 56
19 17 18 15 14 13 14 18 15 9 13 20 32 35 40 43 43 41 39 40 40 45 54 63 66 54 57 59 62 51 55 53 56 52 50 61 63 58 56 55 54 51 49 49 49 47 49 52 51
19 20 21 19 16 16 15 20 20 14 12 14 14 29 42 46 46 46 42 40 46 58 56 57 60 68 64 68 59 58 60 54 52 55 56 55 54 52 51 50 51 51 55 53 52 45 46 43 37
16 22 23 18 14 14 22 30 30 30 40 47 56 60 60 62 62 51 50 52 71 78 70 66 69 69 67 63 61 63 56 52 52 52 52 51 49 52 53 53 54 58 55 51 49 49 41 33 34
26 26 27 22 19 15 25 29 30 32 37 46 55 60 56 54 56 60 64 72 78 83 74 68 69 71 67 66 66 59 48 48 47 52 53 52 51 49 42 43 49 52 51 50 48 43 41 44 36
34 31 27 24 22 20 26 29 34 34 37 41 49 55 56 56 55 56 59 64 68 71 61 57 52 50 50 48 47 46 45 45 47 51 49 49 45 48 53 55 54 52 48 42 38 39 40 39 40
38 28 26 26 29 28 21 43 32 40 42 43 51 52 55 54 54 52 52 52 52 50 48 46 46 45 44 44 43 44 50 54 56 53 51 53 55 60 59 57 57 52 48 41 31 40 54 62 66
31 25 26 26 33 34 30 44 36 38 44 48 49 52 47 44 43 45 44 46 48 49 46 45 46 50 53 53 49 50 52 55 56 57 59 63 64 62 62 56 50 40 36 54 63 73 80 82 85
22 29 40 38 44 59 41 47 48 46 42 44 46 49 44 42 41 43 47 48 49 50 52 54 57 57 58 56 56 59 60 61 63 64 65 66 64 72 79 79 54 63 67 69 63 78 90 93 85
33 49 69 68 74 67 42 54 52 41 39 46 49 44 44 43 42 42 45 45 50 53 54 57 59 58 61 62 62 64 66 66 67 67 72 82 85 73 67 64 73 74 51 40 54 57 63 78 84
33 43 72 62 70 61 42 58 49 41 41 39 40 40 40 42 44 48 52 56 56 55 56 56 58 61 62 65 67 67 68 71 71 69 76 71 71 68 69 75 67 35 39 46 54 58 66 64 62
34 43 36 62 67 76 57 44 35 36 38 34 35 36 42 46 52 54 55 56 56 54 55 57 59 60 62 68 72 65 49 56 60 57 60 56 66 68 69 61 35 36 50 59 57 53 51 56 61
27 28 54 66 58 53 50 53 57 45 44 43 53 47 49 52 53 54 54 56 57 57 57 56 52 53 55 54 52 53 51 57 58 64 65 64 60 66 54 38 45 49 58 53 50 49 50 54 55
40 41 44 49 66 72 78 61 47 51 49 59 55 52 51 54 58 60 61 61 57 53 51 48 56 54 51 49 46 45 52 54 63 72 71 70 70 65 53 55 58 53 49 48 49 51 53 55 58
28 37 47 69 54 82 81 59 42 50 49 51 50 49 52 58 62 63 57 52 51 52 49 49 47 46 42 42 48 58 67 70 68 76 83 81 89 68 77 78 56 48 47 47 47 50 53 56 58

GFSSGP_850_rhum_015.txt.gz
RH
7 2 7 16 23 26 26 22 36 42 57 56 55 56 82 96 80 86 95 81 80 81 79 78 73 71 69 70 77 74 70 70 59 46 36 31 28 26 25 21 23 17 12 13 13 13 15 20 22
3 13 15 18 28 25 26 34 50 48 50 45 49 58 70 89 96 98 100 86 81 70 76 75 72 69 71 76 74 68 62 54 42 35 32 29 27 25 19 22 23 14 14 15 16 16 16 19 18
7 19 16 22 29 29 27 32 46 47 44 39 46 49 65 92 84 91 87 85 85 80 80 75 75 73 75 70 63 54 46 42 35 33 29 25 25 21 19 25 20 16 16 16 17 18 18 18 18
14 18 16 20 22 20 22 31 37 43 43 42 45 55 65 78 81 79 87 89 88 86 84 77 75 73 68 61 51 42 34 32 31 28 24 26 24 17 23 23 18 17 18 20 23 26 27 24 23
19 18 20 20 18 25 26 32 37 40 45 46 49 54 72 74 78 76 83 89 83 85 82 72 71 59 52 44 35 32 31 30 25 18 22 24 19 20 25 29 33 36 40 42 40 38 36 34 32
18 16 21 21 19 28 23 31 45 48 47 52 59 62 80 79 75 81 80 80 78 71 69 64 50 38 33 32 31 29 27 22 14 18 20 26 38 42 44 45 46 41 43 40 34 36 39 38 35
20 20 21 18 35 33 27 27 46 46 48 48 54 57 94 80 71 72 69 76 65 50 37 30 28 26 27 27 26 22 18 11 15 19 33 40 42 46 43 45 43 41 44 40 39 36 36 36 35
17 19 18 17 31 40 28 19 44 46 48 44 46 57 92 89 65 52 47 38 32 29 27 24 20 14 13 14 13 10 11 17 21 41 42 47 49 54 50 54 51 47 48 48 47 42 40 39 40
17 22 22 16 30 23 23 15 36 41 44 44 43 52 71 70 48 37 31 28 28 26 24 25 23 21 12 9 13 17 22 27 39 42 50 54 57 47 47 45 45 44 46 51 51 50 50 48 47
20 26 20 12 17 25 19 24 35 43 48 51 45 51 71 54 50 42 27 27 29 28 34 34 31 33 34 30 33 32 38 41 45 51 49 44 48 49 44 41 43 45 50 53 52 54 56 56 49
16 16 10 9 12 15 13 15 23 47 51 45 45 52 58 54 48 42 30 25 24 34 46 39 40 46 49 44 48 45 51 46 57 48 33 37 44 46 45 38 40 46 52 54 55 58 61 62 55
15 10 10 8 9 8 9 10 29 20 34 34 32 42 49 47 42 39 34 31 42 46 48 51 33 46 54 58 53 50 48 47 42 48 45 31 34 36 34 37 42 50 55 57 57 56 54 55 52
11 8 9 7 7 7 7 8 11 14 31 37 38 42 41 40 38 37 26 30 45 48 54 54 33 47 47 56 59 55 57 58 57 53 50 45 33 35 36 44 45 46 47 42 45 45 42 41 43
8 8 9 10 8 6 8 10 10 19 37 42 42 42 41 39 38 37 36 35 49 52 55 62 44 52 48 52 59 61 63 66 63 56 56 56 53 52 51 53 50 50 44 41 40 41 43 47 47
7 9 9 10 10 11 11 13 13 27 44 44 43 42 42 41 38 34 38 40 47 53 59 68 46 52 54 63 66 69 70 66 49 53 57 57 58 59 60 60 58 55 51 48 49 50 49 49 48
13 15 15 12 12 14 11 14 13 28 45 49 47 48 49 46 43 42 40 40 44 53 60 73 62 63 71 77 77 74 65 55 53 56 58 58 62 66 70 67 62 59 58 53 52 51 53 52 43
20 18 16 15 14 14 13 17 16 20 45 52 59 57 56 54 52 51 50 46 41 56 60 76 65 70 71 77 83 74 60 54 55 57 56 64 67 64 59 56 55 52 52 53 54 55 52 49 47
17 18 19 18 16 16 16 23 32 18 31 31 43 45 45 43 48 47 47 48 47 48 59 80 76 79 70 65 79 68 58 59 59 57 59 59 56 52 52 53 52 44 41 46 51 50 48 49 45
17 23 22 19 16 29 36 42 47 55 60 67 68 70 70 64 67 54 48 48 62 73 61 79 87 78 81 79 73 62 66 60 56 53 53 62 58 57 54 45 44 50 49 49 50 49 44 40 35
24 25 26 23 22 31 38 44 47 48 62 67 68 77 87 85 73 70 73 82 86 84 73 76 85 84 72 69 71 73 56 51 50 51 56 57 52 48 44 51 51 55 54 52 50 50 44 33 27
35 30 26 25 25 29 34 42 45 43 57 65 65 68 72 64 66 72 67 62 67 65 68 56 55 57 57 58 52 45 46 48 47 46 46 50 54 53 55 58 58 58 57 58 44 34 36 37 43
35 28 27 26 30 43 28 55 43 47 60 64 70 60 61 62 58 55 56 56 54 52 50 48 44 43 44 45 44 46 46 49 51 53 55 57 59 62 64 63 64 80 75 68 47 48 58 58 68
30 27 27 27 36 36 34 54 49 46 59 63 67 65 59 52 47 47 49 48 46 45 48 50 54 56 57 57 56 56 59 59 59 60 67 68 67 67 67 79 81 56 55 56 64 53 40 56 83
24 35 44 51 48 62 46 51 53 54 52 55 58 62 56 45 50 53 52 52 53 53 53 58 60 59 58 58 60 62 63 65 68 69 68 68 70 68 63 51 59 61 61 69 39 29 39 46 54
36 46 67 68 73 72 48 55 54 43 47 51 57 57 52 52 55 54 55 57 57 58 60 61 59 58 60 63 66 68 69 64 52 53 54 51 58 55 56 64 69 72 49 29 33 43 46 51 51
36 43 74 55 70 60 47 60 55 47 42 45 48 49 54 60 60 60 56 57 58 58 58 58 56 55 58 64 69 58 48 44 42 54 58 60 63 66 66 70 72 37 36 33 38 34 40 45 49
34 46 41 70 71 78 63 46 40 40 51 48 47 53 56 58 58 56 56 56 57 56 54 50 45 43 48 48 47 45 45 46 60 64 63 62 69 72 90 96 76 58 52 49 46 46 50 51 52
31 35 53 67 55 54 56 58 64 51 49 48 59 58 60 60 58 58 57 57 56 51 44 35 35 39 43 36 37 44 58 72 74 73 64 72 71 74 80 86 86 91 70 49 47 46 47 49 49
40 41 50 57 69 70 77 68 53 51 55 64 66 64 61 60 59 60 59 56 50 42 38 41 47 45 42 39 37 35 39 49 37 35 60 75 78 79 81 83 89 86 53 48 48 44 44 52 56
32 38 45 67 57 84 80 60 46 56 57 58 61 57 56 59 62 60 56 47 42 43 49 49 46 43 40 38 36 35 34 28 23 34 72 79 74 69 77 80 94 57 49 49 46 49 54 58 65

GFSSGP_850_rhum_021.txt.gz
RH
17 6 10 20 16 19 20 17 33 55 68 71 68 67 71 84 77 83 99 89 81 83 90 93 86 78 76 76 72 68 66 54 32 27 27 24 18 20 16 13 14 14 14 14 14 14 15 15 15
6 4 19 20 17 19 20 33 56 58 67 59 61 68 67 68 86 92 95 72 85 78 88 94 88 80 76 73 71 65 50 33 29 28 24 19 19 20 16 15 16 16 17 18 19 20 21 20 19
4 16 19 19 24 18 23 48 53 56 56 49 59 68 71 72 77 63 86 85 88 85 90 92 89 80 75 76 67 50 35 30 27 22 23 17 23 19 17 17 20 27 33 34 33 31 28 27 27
12 20 16 18 18 18 22 45 47 57 64 51 44 51 66 72 66 48 85 87 85 90 92 90 83 78 80 71 54 36 31 29 21 23 20 20 20 18 24 35 39 34 31 30 31 30 28 26 26
18 17 18 18 17 16 19 42 46 44 48 53 52 48 82 88 82 73 82 86 86 84 85 84 83 82 75 62 40 33 32 24 21 24 19 21 27 40 42 36 31 28 28 29 28 27 26 26 26
22 18 19 19 28 31 35 43 48 42 41 47 54 71 94 94 81 76 81 81 84 82 84 88 86 80 66 44 35 35 29 19 25 23 27 41 43 39 36 36 32 30 31 30 30 30 31 33 31
20 17 18 19 36 33 34 46 46 43 49 55 61 77 99 99 82 77 81 82 87 88 89 88 82 69 49 40 39 35 22 24 28 40 45 42 40 37 36 35 33 33 32 32 33 32 30 29 29
20 18 20 23 37 40 26 36 43 46 52 59 58 75 95 98 85 86 90 90 87 91 85 78 62 54 45 42 39 31 21 30 44 46 47 42 40 40 36 34 34 35 32 32 35 36 34 34 34
19 19 19 26 37 40 32 27 37 47 50 50 52 76 76 87 85 88 94 94 91 83 78 53 42 38 39 40 32 24 25 35 50 51 51 50 50 43 38 35 36 34 36 37 40 43 44 42 41
20 22 18 19 35 50 46 24 30 47 51 50 59 76 77 80 88 82 89 89 78 65 37 30 27 31 28 26 21 23 34 55 58 56 57 61 54 46 42 40 43 46 44 47 45 45 48 43 44
22 20 16 14 33 38 34 30 41 48 49 47 66 88 82 86 75 55 56 55 40 28 26 24 21 17 20 23 26 32 49 60 62 59 60 60 58 53 48 43 46 49 50 50 50 44 44 47 49
18 17 12 10 21 30 26 28 44 42 37 37 41 52 63 65 43 20 20 22 25 26 30 37 40 24 24 35 48 59 70 71 66 59 60 63 63 59 51 45 46 48 49 49 48 44 44 51 51
19 15 11 11 12 24 22 26 38 38 24 33 45 66 60 56 45 30 27 27 28 30 41 46 53 50 52 61 68 75 70 76 81 76 76 67 56 60 52 47 48 48 50 50 46 45 48 54 52
15 11 11 11 11 15 16 14 20 30 37 39 53 60 52 54 47 39 32 30 30 38 53 54 57 61 66 72 74 76 71 70 72 78 73 67 64 63 61 56 56 58 58 59 54 58 53 46 44
9 10 11 13 11 12 11 13 18 42 47 48 75 68 61 57 53 47 38 31 36 48 62 63 64 65 68 71 78 85 62 57 57 86 75 67 70 66 68 67 68 69 65 60 54 48 46 46 45
13 16 14 13 13 14 10 13 33 61 55 60 72 72 64 66 65 59 53 51 57 58 66 78 78 74 76 81 72 74 72 76 76 83 71 72 73 72 73 72 64 57 57 56 50 49 51 49 48
20 16 17 15 26 15 17 27 46 51 58 61 61 61 60 62 58 58 56 55 54 60 65 84 97 93 87 73 68 83 85 74 74 78 73 71 68 62 59 56 59 58 51 49 53 54 53 53 54
18 18 18 18 24 33 39 54 57 62 62 69 68 64 59 57 54 53 51 50 50 52 63 79 90 84 82 75 91 84 79 70 70 71 63 57 54 57 56 57 54 52 51 55 57 59 61 63 56
17 18 20 24 31 48 62 64 64 70 69 73 78 71 68 65 59 60 63 65 64 70 74 88 90 74 79 86 74 68 69 72 51 50 52 52 51 52 53 56 57 57 60 63 65 68 64 46 32
24 26 31 34 37 45 54 64 65 67 73 78 80 84 79 86 88 76 73 73 76 82 96 99 87 78 72 68 68 69 50 48 49 50 51 52 54 57 60 63 65 66 65 56 51 43 38 36 32
33 30 30 34 38 40 43 49 63 66 76 84 91 96 98 99 98 94 88 79 75 84 90 88 74 66 68 69 50 49 51 52 53 55 58 61 63 66 67 61 49 46 46 50 57 61 58 42 30
36 30 35 39 34 35 35 28 57 69 74 79 88 96 100 95 82 72 62 57 53 52 54 55 52 55 54 53 55 56 57 59 62 66 66 67 67 58 46 38 29 42 59 62 67 69 48 26 32
36 31 31 30 33 34 36 36 51 66 74 75 76 87 93 92 69 60 55 53 52 50 48 49 51 54 56 58 59 59 62 66 67 66 56 46 40 37 40 42 37 39 48 69 70 60 33 28 26
39 38 42 44 41 40 43 36 43 69 62 65 68 76 78 70 58 54 53 51 50 51 52 55 58 59 59 60 60 59 63 57 44 36 38 42 39 40 41 55 70 65 64 73 71 56 55 48 34
36 39 49 53 55 48 48 48 35 42 51 56 60 66 65 59 53 52 52 52 51 54 56 60 62 60 58 50 42 29 22 22 22 24 32 41 52 43 34 39 73 85 76 91 78 75 65 42 40
39 39 58 52 61 53 45 50 37 43 44 56 58 61 57 56 55 54 54 53 54 56 62 64 60 48 38 32 26 28 30 35 41 47 49 33 26 27 35 46 72 78 76 75 90 70 51 48 46
39 39 43 60 68 61 46 44 40 52 47 58 62 64 64 57 56 58 58 60 63 65 63 53 45 44 36 39 31 37 37 35 34 31 27 22 23 25 24 48 84 84 71 82 87 68 59 50 48
34 39 44 48 51 46 42 51 41 56 52 55 60 63 66 60 61 64 64 66 65 58 46 61 68 65 56 35 37 37 35 33 30 26 22 29 29 27 27 34 80 82 79 84 90 76 59 51 58
40 43 52 47 52 44 48 33 44 45 48 54 55 60 62 63 65 66 66 63 56 47 58 67 49 46 34 39 38 35 33 31 28 24 30 38 42 39 34 43 75 86 85 96 91 81 55 62 60
36 39 43 49 47 63 57 36 36 47 48 52 55 60 59 62 65 66 64 59 52 53 61 44 46 39 42 39 35 32 32 31 26 35 47 51 52 46 41 48 74 80 85 97 78 60 66 70 65

GFSSGP_850_rhum_027.txt.gz
RH
12 14 16 12 14 13 14 12 15 49 41 44 44 47 54 56 60 70 78 82 86 92 83 65 67 67 66 69 71 70 67 58 34 26 23 15 16 12 12 13 13 14 16 18 20 23 24 24 24
24 13 9 12 14 14 11 9 14 41 39 46 43 42 41 54 76 96 92 98 97 98 76 71 71 69 71 74 74 71 62 38 29 24 17 18 15 14 14 15 18 24 28 28 28 27 26 25 24
17 11 10 11 12 13 13 22 32 37 39 35 40 39 47 51 67 87 97 97 98 87 89 78 72 75 78 79 76 70 46 33 28 23 19 19 17 16 20 30 31 28 28 26 24 24 23 23 24
12 9 13 13 13 10 12 32 34 28 32 32 41 45 49 43 47 65 98 96 97 95 90 84 81 82 82 81 77 59 39 33 28 22 23 19 18 28 35 27 26 26 24 24 24 25 25 25 24
12 11 11 12 12 10 9 29 30 26 32 25 27 38 41 47 58 73 98 99 84 83 84 88 90 87 86 80 70 46 37 30 28 24 22 19 33 35 27 26 26 26 27 28 27 26 29 32 34
8 9 11 12 11 11 10 20 21 33 31 28 30 38 56 63 68 69 88 94 86 81 85 90 92 89 81 70 50 43 35 30 27 26 22 39 39 33 29 30 31 31 31 30 32 34 36 36 34
10 8 9 9 14 19 14 29 27 27 28 32 29 35 64 76 75 93 94 79 68 75 92 90 92 89 76 58 49 44 29 32 26 26 49 48 40 40 36 34 32 31 33 35 36 38 38 38 40
9 9 8 9 20 36 19 27 32 29 42 37 41 57 44 69 84 98 98 84 79 96 94 89 88 75 69 63 53 40 30 32 32 53 57 48 44 43 44 41 35 36 38 41 42 42 41 48 57
12 11 9 10 29 27 25 25 30 30 30 33 48 49 55 83 98 99 98 99 99 97 90 86 81 90 88 69 52 37 34 47 52 61 57 66 82 83 81 46 41 40 41 44 45 45 42 56 58
10 9 8 10 23 45 21 23 30 29 46 50 52 60 75 92 91 93 96 98 96 94 88 88 88 87 86 88 68 55 46 67 87 88 84 82 86 86 76 51 40 42 45 47 48 52 58 63 60
10 12 10 10 20 25 19 20 24 31 37 45 46 79 95 91 86 86 91 98 99 97 79 71 78 91 83 82 71 65 73 80 89 94 88 82 88 88 82 74 68 71 65 70 66 68 63 72 70
12 11 11 10 20 17 14 20 20 41 65 48 44 81 87 88 85 83 87 97 98 86 88 84 87 88 78 68 60 66 74 85 83 78 68 93 85 91 82 69 65 69 67 68 67 64 72 70 67
12 10 12 15 16 16 20 17 19 30 24 31 60 74 72 69 57 60 58 61 76 66 70 75 84 78 73 69 75 82 83 86 96 93 71 75 76 72 83 82 74 74 70 69 70 68 69 64 61
11 11 9 10 16 22 18 17 18 26 27 38 49 49 48 44 42 44 47 52 57 60 69 76 72 74 78 85 93 92 88 66 66 64 63 66 71 64 74 74 74 78 78 81 77 74 68 63 61
12 12 8 9 15 20 21 13 16 27 29 40 39 41 39 38 38 41 45 48 50 58 69 76 81 86 89 97 89 60 53 51 50 62 69 66 79 74 68 73 82 86 72 57 57 58 64 62 59
12 11 14 11 12 16 19 15 20 25 26 29 33 37 37 42 38 37 38 42 46 59 74 87 86 93 98 79 69 54 49 48 61 63 77 80 79 70 76 82 78 65 61 69 70 66 67 67 66
12 14 12 12 10 11 15 15 21 27 23 29 35 39 41 43 42 44 41 39 45 63 88 97 89 85 72 78 71 55 73 66 67 81 74 70 69 75 74 66 62 60 72 73 76 77 78 73 70
14 12 10 11 10 12 10 14 16 22 21 27 32 36 40 43 48 54 48 46 49 64 92 100 98 71 73 70 66 72 78 75 79 74 74 74 72 62 73 78 60 66 76 77 84 86 75 66 55
10 12 8 11 14 10 9 13 16 21 21 24 27 33 38 43 52 67 61 62 65 79 97 100 99 84 85 85 96 97 87 86 84 80 76 63 69 62 62 72 78 81 78 76 80 76 66 55 51
10 11 12 12 12 16 12 13 18 23 23 24 26 30 35 42 62 65 72 74 76 89 98 100 100 98 96 93 93 83 81 76 70 74 65 71 64 68 69 70 77 74 70 62 56 66 68 60 56
12 12 14 14 15 14 15 18 25 24 28 32 30 30 34 41 57 67 72 89 99 99 98 98 96 96 89 75 74 74 75 75 69 70 70 75 69 71 72 73 70 67 63 58 62 66 72 63 61
16 16 15 17 19 19 15 17 20 27 29 33 38 38 40 49 56 64 71 98 98 96 92 91 93 81 72 70 64 67 58 59 67 70 71 69 75 70 62 60 68 71 71 72 70 62 71 72 63
27 16 17 17 17 22 19 16 45 26 28 29 32 38 48 52 56 62 65 77 97 92 92 81 72 69 74 67 67 69 65 70 66 63 62 54 57 56 59 62 66 76 74 73 74 76 76 75 72
19 20 20 19 16 24 14 16 17 25 22 27 34 44 50 53 52 54 60 66 75 85 73 72 67 67 70 71 72 71 66 52 47 52 51 45 48 49 47 51 60 60 63 70 71 75 78 83 86
17 20 28 31 27 28 18 20 14 10 19 22 37 45 50 47 44 48 55 58 67 72 73 68 63 66 70 69 62 57 43 50 66 56 46 47 40 41 44 54 55 57 61 68 72 76 80 82 81
20 18 28 30 26 20 21 19 14 17 19 24 37 44 49 45 43 45 47 50 57 65 66 61 63 66 66 58 53 58 53 56 48 47 46 47 46 45 50 54 56 59 68 68 78 86 89 84 92
20 24 20 27 45 36 16 10 19 22 22 26 35 41 45 44 43 44 45 48 55 62 65 63 63 59 54 59 67 38 36 35 42 47 52 44 47 46 46 58 58 58 62 66 81 86 89 88 80
23 18 26 23 35 32 15 14 14 25 23 26 32 36 41 41 42 42 44 52 58 62 66 67 61 53 64 57 48 38 35 51 46 51 51 48 51 56 59 61 62 66 68 66 65 76 75 78 88
26 24 22 22 28 33 23 15 13 15 20 25 28 33 37 39 40 43 46 53 59 62 68 64 59 61 64 57 56 54 56 47 49 51 49 50 56 61 62 60 63 65 63 64 75 81 84 93 94
21 21 22 31 26 29 39 24 15 16 16 22 25 30 34 37 38 42 48 54 59 63 64 65 65 60 60 68 61 59 48 44 47 48 46 52 60 65 65 61 64 63 62 74 80 92 95 96 96

GFSSGP_850_rhum_030.txt.gz
RH
6 13 16 18 13 16 16 12 24 41 36 38 42 39 46 61 67 87 89 95 81 62 57 60 61 64 66 70 68 68 62 47 29 23 16 14 12 12 13 14 16 20 25 26 25 24 24 25 26
11 28 19 10 16 18 14 25 30 35 39 38 38 37 44 63 76 95 94 88 84 65 62 64 66 72 75 75 72 69 52 30 25 18 14 15 13 14 15 21 27 26 24 22 21 21 21 21 23
18 15 8 9 14 17 14 28 39 35 34 35 35 39 40 54 74 87 90 93 86 77 72 68 72 77 80 77 74 64 36 28 22 15 17 15 15 18 28 27 25 24 22 21 21 22 22 22 21
16 11 9 16 15 11 13 54 61 36 33 30 34 38 41 57 67 80 92 96 93 82 70 73 81 84 83 78 75 50 32 28 21 15 18 16 21 30 25 25 23 22 24 25 27 30 33 33 33
16 10 10 13 12 10 9 26 26 37 50 50 62 36 40 59 72 87 92 93 89 83 84 85 90 90 81 78 62 41 33 27 20 19 18 22 33 26 25 24 24 25 26 29 34 35 34 35 36
11 9 13 14 11 9 9 19 29 45 50 48 58 36 43 56 66 84 93 90 92 88 86 85 90 85 82 75 55 40 33 29 21 21 23 37 31 27 26 26 27 27 30 32 36 36 36 39 44
12 9 10 10 12 16 15 31 46 65 69 40 35 34 58 58 64 79 81 88 91 85 78 96 89 88 86 73 51 37 30 28 22 24 41 36 33 32 33 31 30 31 33 36 37 37 38 50 54
9 9 11 10 8 18 20 29 49 46 54 39 35 36 48 56 73 80 71 86 95 90 89 78 97 91 75 56 45 33 31 25 26 46 41 38 41 38 36 36 34 35 40 40 40 40 42 59 59
8 11 14 10 8 35 54 72 43 35 39 40 33 44 60 71 84 84 96 83 94 92 78 99 92 75 61 48 38 28 32 33 51 48 70 80 79 81 79 47 36 38 41 41 43 47 59 64 64
10 12 11 14 26 49 61 67 64 27 32 30 42 57 77 86 94 95 83 91 78 93 99 79 80 71 68 48 39 38 54 59 66 55 88 81 88 82 66 63 55 50 52 65 66 67 66 71 63
10 12 9 19 34 34 39 53 31 43 46 56 79 71 80 78 86 94 100 86 95 94 71 84 69 84 87 58 45 67 77 86 94 86 87 82 67 78 84 86 69 63 67 72 70 68 69 65 70
11 8 9 12 27 29 35 25 27 28 37 36 43 70 78 71 79 90 90 96 92 89 82 83 81 76 71 58 63 69 82 86 74 68 66 63 81 72 85 71 68 71 70 69 70 70 70 68 65
10 10 10 11 19 18 18 35 38 32 36 46 66 75 65 62 68 79 78 90 85 72 91 84 69 77 59 63 65 75 72 69 71 82 70 78 80 78 64 63 62 71 66 71 72 72 68 63 62
8 11 10 10 16 16 21 40 32 30 38 62 63 54 51 46 44 50 63 67 64 68 74 72 70 69 69 69 82 74 66 63 68 69 69 66 63 63 67 79 68 62 54 62 70 58 57 58 62
12 13 11 9 15 19 22 24 20 29 34 42 41 40 36 35 37 40 48 54 59 66 75 74 67 75 80 76 71 60 51 50 64 61 56 60 58 59 72 67 60 65 73 75 60 53 64 66 69
14 12 17 12 14 18 33 43 17 26 30 30 32 33 32 33 35 41 46 50 56 65 73 74 81 86 81 72 58 46 39 48 62 73 68 73 74 72 75 65 63 67 67 61 56 71 76 70 74
14 18 19 15 12 18 26 33 14 20 25 28 32 32 34 35 35 36 42 43 52 65 76 81 88 87 75 65 54 50 49 54 57 62 75 74 73 75 78 66 59 54 62 69 78 80 73 68 51
20 19 15 14 10 11 18 16 14 17 22 27 30 33 38 37 38 39 38 41 47 70 80 86 90 80 85 72 63 66 63 63 66 75 75 70 63 64 67 65 62 68 76 76 71 66 61 55 50
15 14 14 11 9 11 15 13 12 14 17 26 29 34 37 38 43 47 42 40 44 71 85 88 96 87 78 76 77 75 67 74 74 76 76 68 59 57 59 73 77 76 74 71 59 49 53 52 62
15 16 14 10 11 12 10 11 12 14 16 21 26 30 36 39 49 60 54 54 66 82 86 88 97 99 82 92 90 83 87 75 79 75 60 66 67 75 71 68 66 62 52 42 54 55 59 68 65
14 14 19 14 10 8 12 11 16 16 17 17 21 25 30 37 56 59 62 66 71 85 86 86 95 91 90 91 82 83 78 74 70 60 68 70 71 71 67 64 55 50 56 61 63 64 69 66 67
22 18 16 16 16 19 18 24 42 31 21 20 21 23 27 32 51 56 63 75 91 93 85 89 90 86 85 79 73 74 74 65 66 70 74 69 63 52 52 59 62 70 72 61 67 72 71 69 73
25 23 20 13 15 40 32 37 30 37 34 26 27 30 29 32 44 53 67 76 78 89 86 97 87 76 76 66 67 65 69 66 70 67 66 46 49 54 55 58 57 62 70 61 67 70 75 77 82
18 22 18 16 18 57 30 47 30 32 30 33 25 31 34 44 48 51 66 75 90 81 85 83 76 69 73 67 66 67 67 63 59 52 52 52 47 49 48 45 47 42 34 49 57 67 71 77 76
14 18 36 68 66 49 17 21 22 26 34 68 49 31 41 45 49 54 65 82 81 79 80 74 66 68 69 72 73 70 67 55 45 59 51 48 48 42 43 43 39 41 37 52 65 69 77 77 68
20 16 45 72 82 39 18 21 18 16 17 24 31 39 44 48 49 53 58 64 76 75 73 70 64 66 71 72 65 59 49 51 54 55 49 44 44 45 43 46 50 40 51 58 62 69 73 77 87
19 23 17 24 47 56 22 12 16 17 18 22 34 38 44 44 44 48 51 57 66 70 71 63 62 65 69 61 56 54 57 48 42 47 61 42 47 43 46 48 52 59 63 66 67 65 69 77 82
19 16 29 24 39 38 19 16 28 24 20 21 32 38 42 43 41 42 44 48 56 63 66 61 61 63 62 56 63 58 47 46 58 43 52 53 50 52 57 60 61 61 65 64 63 67 70 79 78
23 25 19 16 29 49 51 23 14 16 17 21 26 34 39 42 41 41 42 45 52 58 63 64 63 60 55 64 62 53 58 56 55 56 53 52 50 55 61 64 64 61 64 62 65 71 59 80 80
18 22 20 54 34 38 53 37 15 15 15 18 21 26 34 38 40 40 41 43 52 58 62 68 67 55 59 63 63 62 58 63 49 48 50 48 49 56 63 66 64 62 64 65 70 73 87 68 90

GFSSGP_850_rhum_033.txt.gz
RH
8 9 16 25 25 28 29 23 39 54 46 42 42 56 75 75 82 83 100 85 77 58 53 64 66 70 57 65 71 69 52 26 20 13 12 11 12 13 14 20 23 21 20 20 21 21 22 26 44
8 18 32 27 22 30 28 53 60 52 41 38 42 50 61 84 85 98 98 94 79 69 66 63 71 62 69 77 74 60 31 24 17 13 13 12 13 16 24 23 20 19 20 20 20 20 20 26 51
8 32 26 17 20 26 26 66 53 44 38 35 41 39 46 84 91 97 89 90 76 61 68 71 68 74 80 79 68 41 26 21 14 14 13 14 18 25 21 20 19 22 23 25 27 30 31 28 32
13 15 12 17 23 19 18 51 49 39 43 44 39 45 46 74 85 90 95 88 64 64 70 74 80 85 84 76 56 32 27 20 14 16 15 21 25 21 21 20 22 25 27 30 32 32 34 33 31
22 19 16 19 20 16 20 35 44 56 57 63 40 47 57 59 78 84 99 93 62 74 81 88 87 87 81 62 45 31 24 19 16 16 19 27 21 19 19 23 25 26 29 32 34 35 40 45 44
21 14 21 22 15 13 54 49 49 50 53 60 50 54 60 56 79 77 99 99 92 87 91 89 91 67 62 71 40 31 20 18 18 18 30 23 21 21 23 25 27 28 31 34 34 34 46 54 54
23 21 19 15 14 13 46 56 63 62 54 48 46 86 65 76 77 81 94 100 99 97 90 95 89 77 86 62 39 26 18 17 18 31 28 25 25 25 25 27 29 31 33 35 36 40 58 61 60
14 17 18 15 14 49 60 64 56 70 58 48 40 60 74 90 79 77 94 100 98 99 87 79 76 76 83 51 33 21 18 19 31 31 32 36 34 29 32 28 30 33 36 38 41 54 62 64 64
14 16 16 15 33 62 56 60 62 52 64 51 41 59 69 71 78 84 98 99 100 97 92 81 83 91 66 44 32 23 22 30 38 42 64 53 63 66 48 36 32 35 38 49 65 65 66 65 64
15 21 16 20 42 48 66 52 59 70 64 48 60 66 64 66 78 76 70 81 94 83 71 82 94 78 57 41 29 25 27 43 49 72 75 71 82 73 66 70 61 60 67 70 68 73 68 69 66
14 17 13 22 33 38 48 52 50 60 63 46 65 63 68 75 80 71 66 60 85 61 62 86 94 74 49 34 26 35 59 60 63 74 83 77 85 80 82 77 68 74 74 71 72 70 70 70 68
15 12 11 28 29 36 37 29 31 38 41 41 55 60 71 65 75 77 62 74 71 71 76 82 97 78 56 29 40 60 71 72 80 77 88 93 79 82 77 73 79 73 73 71 69 69 70 70 69
14 12 10 25 34 42 30 35 34 47 44 42 60 55 66 71 82 87 79 87 80 80 93 95 88 66 47 61 76 85 78 76 70 70 83 76 77 84 81 75 71 72 69 62 62 71 71 57 49
10 10 11 12 35 34 34 36 33 39 45 46 53 59 69 65 69 80 85 91 91 92 92 87 80 59 66 76 70 86 70 73 65 83 76 77 68 66 61 62 66 62 62 66 60 70 62 52 50
13 14 14 10 24 38 29 36 38 35 54 62 62 61 58 61 63 67 62 67 84 82 72 68 72 62 71 70 80 76 71 67 77 68 56 55 53 54 59 69 67 65 67 71 70 62 50 52 56
16 17 21 14 27 31 25 38 32 40 58 64 57 45 47 49 60 61 73 79 82 78 76 43 60 72 68 62 76 72 63 64 58 51 58 69 65 72 73 71 60 67 61 52 44 50 60 70 62
24 26 21 17 22 31 29 33 26 42 53 54 46 36 34 39 47 53 58 64 66 64 54 56 60 67 66 63 63 57 51 48 49 54 67 72 73 74 75 64 58 57 50 53 62 71 72 50 52
29 22 20 24 17 28 32 32 23 32 32 34 34 34 34 36 43 46 50 56 59 62 61 55 68 73 76 66 53 51 55 61 65 63 72 70 68 65 55 49 54 53 59 66 69 59 43 41 42
27 21 22 18 12 25 25 23 21 20 32 37 34 37 37 36 36 39 44 53 58 64 69 63 63 73 72 61 55 61 75 70 76 75 68 60 60 61 58 56 61 72 73 65 48 42 42 40 42
26 23 24 18 13 16 19 21 20 19 27 32 34 40 40 38 40 39 40 50 61 70 76 76 72 80 85 66 68 80 78 72 74 70 68 60 56 52 60 65 67 58 45 34 35 37 34 43 54
29 35 25 17 12 11 12 18 25 19 17 30 33 35 39 39 47 44 50 52 69 77 80 78 80 73 83 80 84 91 80 84 79 74 57 58 60 61 60 53 50 51 47 46 44 43 47 62 64
25 28 28 21 21 25 24 40 40 36 28 23 29 35 40 41 49 51 55 71 76 86 86 88 87 82 84 86 97 85 82 77 71 62 67 70 68 51 53 53 51 47 49 52 56 51 54 58 65
30 25 24 27 29 35 33 41 37 38 26 31 30 26 37 42 50 58 61 67 86 85 92 91 86 84 81 81 83 81 76 74 67 71 75 69 51 55 54 54 54 54 53 51 39 24 55 75 74
26 22 27 35 41 49 33 38 46 51 34 32 26 28 31 50 57 60 64 68 72 84 84 83 85 80 80 83 79 76 74 73 70 74 68 54 53 52 50 50 50 47 42 21 15 31 48 70 80
25 30 55 64 77 67 35 42 38 33 32 38 35 27 36 47 58 58 62 73 77 77 80 89 91 83 81 70 69 70 70 69 70 67 53 56 51 49 48 44 38 32 23 20 26 41 59 69 70
27 31 63 75 85 70 43 49 32 26 25 30 31 27 41 45 50 53 62 70 67 74 77 83 83 80 73 71 67 70 68 63 59 50 53 55 55 48 31 32 24 26 36 33 32 32 55 67 86
31 35 34 67 72 82 46 22 25 25 34 50 42 38 45 46 52 61 67 70 71 71 81 83 79 69 70 69 70 72 72 66 52 51 52 64 61 39 27 30 34 40 39 43 51 59 60 68 76
22 21 38 50 45 46 34 30 39 31 44 48 49 49 47 50 53 57 67 71 75 76 77 74 68 66 67 69 71 69 61 54 51 46 47 50 37 41 42 40 46 51 59 53 64 66 68 69 70
29 29 27 32 52 60 71 42 18 26 29 44 48 45 46 46 48 50 52 54 65 70 68 67 65 64 65 68 65 58 58 50 40 50 53 52 62 55 48 53 56 64 66 60 65 65 66 67 63
21 28 42 65 39 55 74 52 17 18 26 23 34 41 44 45 43 43 44 47 52 56 60 63 62 63 65 65 60 60 62 51 58 57 56 68 57 50 51 55 63 66 66 62 67 68 69 70 68

GFSSGP_850_rhum_036.txt.gz
RH
15 7 18 23 29 32 31 26 22 49 50 45 53 66 82 85 84 78 96 82 66 78 79 80 74 68 54 61 68 58 28 18 9 10 10 11 12 17 21 19 18 17 17 17 21 36 52 64 45
13 15 28 31 26 29 26 28 53 51 44 52 53 68 76 90 95 96 95 85 58 73 82 85 79 64 57 70 69 39 23 13 9 10 12 13 19 21 18 16 16 18 19 20 21 38 51 39 45
12 20 33 32 27 26 27 56 54 47 42 38 41 43 63 97 99 99 89 74 53 65 76 82 66 57 70 73 53 27 19 13 12 12 14 21 21 18 16 18 20 24 28 30 31 29 32 38 51
17 22 20 18 20 19 18 38 53 48 43 38 39 49 64 91 92 85 92 73 59 63 76 82 64 73 78 66 35 24 17 13 14 14 22 22 20 17 19 21 25 29 31 33 33 34 33 31 44
23 24 19 19 18 14 36 32 46 60 61 57 44 57 63 88 85 86 95 80 70 70 88 69 75 79 74 45 29 22 16 14 14 18 23 20 18 20 21 23 28 31 32 33 36 44 45 42 41
23 20 23 23 17 13 60 63 61 67 63 57 52 65 86 100 91 97 99 91 76 92 80 84 90 83 62 39 30 20 15 15 16 25 20 19 19 22 23 26 29 32 33 34 41 48 50 46 48
27 26 26 20 19 22 58 62 68 66 56 59 55 80 98 99 99 99 100 99 98 99 100 100 97 81 68 42 29 17 14 15 24 23 21 21 22 24 26 28 30 33 34 38 44 54 57 52 53
17 20 19 17 15 28 63 67 68 64 59 51 54 79 96 100 100 99 98 89 92 89 96 98 86 68 65 52 31 22 17 20 30 24 24 23 24 26 27 30 33 35 38 45 57 57 58 60 63
20 21 23 16 22 54 63 66 50 40 59 52 62 68 98 100 83 94 96 93 91 94 86 82 74 73 70 48 31 25 20 32 31 31 29 34 41 32 31 32 38 40 51 66 65 65 67 68 67
18 24 19 15 36 55 56 58 60 54 56 77 100 98 100 94 75 74 76 91 84 79 90 73 66 73 65 41 32 26 37 35 39 47 50 69 73 65 67 58 64 68 70 69 69 69 67 68 66
18 20 16 19 45 39 55 53 56 61 62 62 99 99 76 82 74 57 63 78 65 60 64 75 96 89 56 35 29 28 44 64 76 74 77 83 71 77 80 67 69 72 70 70 68 67 71 70 69
16 13 13 37 37 40 44 43 53 59 48 62 62 51 69 72 54 49 54 64 67 53 64 82 78 74 47 29 30 46 46 60 83 94 92 84 84 74 75 76 70 69 69 70 72 73 73 72 60
16 15 22 31 34 31 36 46 41 53 60 68 71 66 60 60 64 55 49 59 54 55 74 72 75 63 40 38 53 68 64 73 68 88 92 88 82 80 75 71 71 71 72 72 73 73 73 72 62
18 21 32 28 30 27 40 38 39 54 65 75 77 73 63 60 62 61 57 68 58 66 73 82 78 60 42 72 79 76 75 74 80 85 83 79 82 80 79 72 72 74 72 68 67 66 66 56 50
19 18 39 42 41 37 34 35 46 48 55 67 64 69 65 68 67 68 65 64 59 69 78 84 69 59 58 82 80 81 76 86 86 77 65 63 63 62 67 69 75 73 66 62 64 58 48 53 53
26 20 21 38 35 33 32 43 46 54 54 60 65 69 70 75 67 71 63 56 64 73 76 84 74 65 67 65 70 87 96 86 81 70 52 54 55 58 69 76 74 64 61 55 45 46 49 49 60
32 26 22 28 27 29 27 33 32 50 57 58 61 68 63 65 73 67 58 50 58 69 87 88 76 66 70 85 89 91 83 81 74 55 54 59 65 71 75 75 68 62 51 48 51 54 59 45 28
34 25 20 24 23 27 29 26 29 46 60 63 65 55 60 64 65 60 62 64 65 72 72 68 74 64 78 80 79 81 76 63 52 63 67 69 72 74 73 68 57 54 51 54 55 48 28 35 40
30 32 36 23 18 31 31 25 29 44 55 60 51 44 50 59 63 66 68 71 76 79 65 45 50 60 69 69 69 72 60 53 64 73 74 74 70 62 50 51 55 53 55 54 35 33 35 26 34
33 36 34 25 19 28 31 26 26 38 44 48 44 41 47 59 64 66 73 77 72 70 59 47 40 53 69 72 64 58 53 59 71 72 75 71 58 47 53 54 52 54 45 37 35 37 33 27 44
33 35 31 32 20 14 21 29 28 22 35 40 40 35 37 42 53 56 63 64 67 69 64 63 60 63 74 78 68 57 61 78 76 74 74 69 57 53 57 53 46 51 50 38 40 47 45 39 44
37 27 26 30 24 22 25 41 38 30 29 41 41 44 40 38 40 44 51 58 61 64 68 70 70 77 82 80 70 64 71 74 76 73 72 58 60 65 55 52 53 54 53 48 52 49 35 26 53
35 26 30 27 32 35 32 36 32 37 29 36 33 43 47 41 39 41 42 46 54 59 64 71 80 83 82 86 84 75 84 80 72 75 68 68 68 63 56 54 54 56 54 51 47 33 12 17 32
32 30 35 47 45 46 40 39 40 43 29 26 25 32 42 47 55 49 50 60 66 70 71 83 92 91 93 89 87 84 78 74 74 75 72 74 64 56 57 56 54 52 48 43 28 12 14 16 51
30 39 58 56 71 56 43 42 39 30 32 33 28 35 34 43 56 59 60 66 73 76 74 96 91 88 91 84 84 79 80 77 72 74 75 71 60 57 53 57 64 45 39 23 18 17 18 30 54
38 35 60 51 69 56 47 52 41 28 24 28 29 30 39 47 54 58 58 63 68 73 83 88 86 89 85 83 85 86 89 83 77 74 74 60 56 57 55 51 58 36 26 29 27 22 32 48 54
33 37 36 70 74 82 53 31 28 32 37 43 45 38 55 59 60 60 65 65 72 84 85 86 91 93 85 85 83 79 82 74 70 66 60 59 50 54 62 59 44 40 43 41 42 33 48 56 66
32 26 38 54 55 59 39 35 42 34 35 50 47 43 47 53 54 56 61 68 74 71 73 81 84 92 87 83 73 71 70 65 62 56 57 55 58 57 54 58 56 47 49 53 52 50 57 64 66
30 30 30 39 56 56 68 42 24 35 43 50 49 36 44 51 51 54 58 64 64 65 65 66 77 80 82 75 73 72 74 71 64 54 53 49 50 59 76 68 54 54 54 62 64 62 59 67 68
27 34 40 63 36 60 75 48 28 29 36 43 44 40 43 47 48 47 49 53 57 60 63 68 71 75 71 68 67 68 70 68 61 51 46 64 69 74 57 55 54 56 62 66 66 59 64 69 70

GFSSGP_850_rhum_039.txt.gz
RH
22 11 14 22 27 32 31 26 20 38 50 55 54 64 76 98 79 75 96 90 64 79 93 84 81 72 48 50 56 45 20 11 9 9 11 13 19 19 16 16 17 20 31 49 61 48 48 55 61
16 16 23 29 29 31 27 24 38 43 60 61 58 65 80 96 98 99 100 89 83 96 97 90 84 68 50 60 56 28 15 11 10 12 14 19 19 16 16 16 17 20 40 57 45 42 43 42 56
17 24 35 32 32 27 26 29 57 53 62 56 46 60 78 95 88 99 96 96 96 99 98 94 84 58 61 64 47 22 12 11 10 14 21 19 17 16 17 20 24 26 28 37 39 40 46 43 44
18 27 20 21 20 19 19 20 38 51 53 52 52 64 84 100 86 91 90 100 98 99 99 96 80 56 68 60 29 17 12 11 12 18 20 17 17 19 22 26 28 30 31 31 35 40 40 47 48
22 22 23 20 18 16 55 66 53 68 70 63 54 68 87 97 92 89 94 97 100 98 99 92 65 68 70 42 23 14 13 12 16 23 19 18 20 22 28 29 31 32 34 35 37 42 40 38 40
26 20 26 25 19 15 60 64 67 68 64 61 62 77 96 100 96 97 94 99 99 99 100 92 78 81 52 27 19 12 14 14 21 21 19 20 23 27 30 32 33 34 40 45 42 44 47 48 48
29 31 27 22 22 17 59 60 66 62 55 57 59 88 100 100 99 96 95 94 99 100 100 99 99 51 32 25 18 17 14 15 24 21 21 24 26 29 31 34 35 37 41 41 44 46 53 60 57
19 23 20 18 17 19 61 64 67 63 62 55 67 90 98 99 100 98 100 94 100 97 100 98 85 55 36 32 23 17 14 25 25 23 22 26 29 32 34 36 37 38 38 38 48 55 57 64 65
21 25 25 19 17 38 66 69 61 66 65 70 84 89 96 99 99 93 83 80 71 85 99 86 77 69 55 53 38 20 22 32 26 26 28 29 31 33 36 36 38 41 43 52 59 57 57 61 66
22 25 21 18 29 53 62 61 56 58 88 99 100 99 99 98 95 81 94 92 90 86 77 75 86 72 62 40 28 25 41 31 30 36 39 46 38 37 34 39 42 52 57 60 58 62 63 67 68
19 22 18 17 35 49 56 52 61 60 69 91 98 99 98 88 90 90 83 82 71 73 78 80 66 59 49 38 30 31 42 52 53 77 75 70 66 62 57 59 61 62 60 61 65 68 70 70 70
20 17 15 36 43 41 48 49 48 58 57 76 73 78 80 66 62 69 67 74 62 53 65 60 72 81 51 38 30 46 47 69 84 84 83 74 71 76 68 66 63 63 66 69 72 72 72 72 64
17 16 24 32 38 34 34 45 41 62 80 67 83 64 69 69 78 71 77 67 56 65 67 71 84 74 51 40 36 53 86 92 91 85 80 72 70 69 72 70 70 71 70 73 74 75 74 69 61
18 22 34 39 39 31 31 45 42 75 94 63 60 61 70 63 48 58 71 60 49 50 62 67 73 71 50 41 43 55 74 82 89 87 83 83 74 72 73 73 74 74 75 76 75 75 70 60 51
22 33 39 41 38 38 36 45 46 82 86 69 67 61 66 58 51 47 38 44 45 55 69 70 80 68 45 45 59 60 70 82 77 76 78 73 67 71 80 79 77 78 77 75 74 67 50 49 50
28 23 37 33 41 38 31 43 53 75 86 94 87 79 67 63 58 50 49 39 50 55 72 80 73 59 42 67 82 86 86 82 90 80 67 65 71 74 79 78 81 81 74 67 60 48 50 45 37
35 27 24 33 36 36 34 39 49 56 72 83 93 78 68 70 65 62 59 53 51 54 64 80 71 58 48 79 91 89 87 87 93 67 57 57 60 68 78 82 82 74 65 54 49 50 43 26 22
36 34 29 30 32 35 38 32 52 61 69 73 77 75 72 65 62 62 62 59 52 58 59 72 73 63 67 75 76 80 95 98 93 75 57 63 68 74 80 81 76 65 51 50 51 40 27 25 21
30 34 38 30 20 31 33 28 48 55 64 74 75 76 71 65 61 62 50 49 49 65 70 74 77 72 70 73 75 83 94 95 80 59 68 70 72 80 80 76 62 50 51 50 41 36 31 26 23
31 31 34 27 23 32 34 33 28 56 60 62 66 67 68 66 65 66 55 55 57 63 67 75 70 72 68 69 76 88 90 80 64 70 73 74 75 76 71 57 50 49 50 49 46 37 30 26 23
31 32 34 32 29 19 29 31 26 31 49 59 60 60 57 61 61 64 60 58 61 64 62 61 45 56 63 64 81 85 82 70 68 73 74 74 71 63 56 54 56 52 54 56 50 39 36 35 20
33 30 32 34 31 24 24 36 38 34 44 49 51 54 48 56 60 59 60 62 65 63 65 63 54 50 52 68 80 78 74 63 58 69 75 76 70 62 63 64 54 55 56 56 61 47 43 28 13
34 30 34 30 32 35 34 36 33 38 38 42 46 49 46 48 58 59 57 51 57 70 70 64 60 59 56 67 80 83 78 68 70 79 79 77 72 68 69 61 56 56 61 70 51 43 28 14 14
29 28 39 46 47 48 42 38 40 38 34 32 34 44 44 45 54 58 58 65 67 68 73 70 66 70 73 81 88 88 83 72 74 82 77 78 70 72 69 59 60 59 66 81 49 28 19 17 21
33 41 56 55 66 53 43 45 41 28 29 31 35 39 45 44 46 56 58 60 61 59 65 69 68 76 85 90 92 93 93 85 78 76 74 77 73 74 66 62 62 60 71 80 40 30 23 21 33
37 39 58 50 64 52 49 58 41 30 32 28 26 24 31 44 47 48 50 49 52 56 59 63 71 83 89 93 94 98 100 93 78 79 79 78 76 74 67 65 74 67 84 49 42 40 31 27 35
34 40 37 68 74 79 54 43 28 31 44 52 42 36 42 44 47 48 55 59 58 60 62 69 80 87 86 96 99 91 92 92 80 90 86 81 80 70 65 70 81 83 77 60 46 50 50 56 49
31 32 41 55 50 59 48 40 41 33 31 52 56 50 43 49 52 54 56 58 62 64 66 82 87 83 88 90 87 85 82 82 79 93 85 85 64 65 70 83 69 80 75 72 58 58 63 64 55
34 35 35 43 56 55 66 50 30 33 32 40 41 40 46 51 52 51 54 57 56 61 70 74 74 74 79 81 79 78 77 79 79 81 76 72 67 74 68 58 72 64 61 60 61 62 66 61 59
29 33 39 62 41 64 77 53 28 27 34 40 35 36 33 40 34 37 44 51 54 62 70 68 63 60 62 70 71 83 78 76 75 74 69 63 65 59 56 71 61 58 59 61 63 67 64 56 66

GFSSGP_850_rhum_042.txt.gz
RH
18 10 10 21 28 33 31 25 22 28 40 68 66 70 81 95 81 76 98 98 88 81 90 82 78 66 45 46 46 36 16 9 8 10 12 14 19 19 18 20 21 25 37 52 51 56 64 67 68
14 13 25 26 30 32 24 23 27 56 70 58 54 69 88 92 89 98 100 96 91 97 96 85 80 64 46 50 47 21 10 8 9 12 16 20 18 18 20 26 34 46 52 48 41 41 59 60 52
16 28 32 31 34 28 26 20 53 62 66 52 50 71 82 92 99 98 98 94 100 99 94 89 81 60 52 58 35 15 9 8 11 15 20 17 17 18 22 38 52 50 43 40 39 39 42 48 48
14 28 19 23 22 19 19 18 46 52 61 52 56 70 96 90 99 98 93 98 100 99 95 91 81 56 61 53 23 11 10 11 15 20 18 17 19 23 25 30 35 36 36 36 40 42 45 50 53
24 21 27 22 20 16 20 63 69 63 67 64 55 78 96 96 98 99 96 99 99 99 98 99 79 60 64 33 18 11 11 14 23 19 18 20 26 32 33 33 36 35 33 37 37 38 38 40 44
24 21 29 26 20 17 42 65 68 67 65 62 72 86 96 88 100 100 99 98 100 99 100 100 81 75 42 22 14 13 14 23 24 19 20 24 31 34 37 39 39 42 45 43 42 43 45 48 50
28 34 30 22 24 19 50 62 67 70 67 66 68 94 100 93 93 99 100 99 98 100 100 100 99 83 38 20 14 17 21 26 22 19 24 29 33 36 37 37 42 44 47 52 50 50 54 55 50
21 27 22 20 20 17 56 64 69 71 72 72 79 94 98 99 88 86 100 100 97 99 100 100 96 71 38 21 23 22 29 25 20 23 27 32 35 36 36 38 38 38 49 50 53 57 59 62 61
20 32 29 20 18 19 59 62 64 71 74 91 85 88 96 98 88 92 87 96 92 97 98 97 75 44 35 28 44 54 33 24 25 28 30 32 35 37 38 37 39 44 43 48 58 61 61 65 65
25 30 25 21 17 42 65 59 58 64 95 96 98 99 99 99 95 97 88 96 96 91 90 82 61 47 56 65 60 39 32 26 26 29 32 34 34 35 36 39 45 45 48 57 60 64 67 68 67
22 24 19 17 15 48 59 57 55 78 83 92 98 100 98 99 100 100 100 94 98 100 91 79 71 72 74 66 33 36 32 29 31 34 37 32 32 33 40 40 48 54 59 63 69 69 68 68 70
22 18 18 19 41 45 52 54 60 55 53 65 80 78 90 100 100 100 88 90 90 85 87 77 70 83 69 45 26 25 33 34 45 48 55 52 52 49 56 59 62 66 71 69 69 69 72 73 70
19 17 20 20 36 42 44 46 55 76 58 69 99 98 97 71 89 95 99 97 93 80 76 77 78 69 50 38 28 40 44 51 70 76 75 71 71 66 66 67 69 70 69 71 74 75 75 74 67
19 31 36 39 42 38 42 49 51 98 81 91 96 91 67 54 70 62 60 62 56 56 52 60 69 57 45 35 30 49 45 74 84 81 80 74 70 71 74 75 73 73 73 74 76 77 74 66 50
23 39 39 41 37 41 38 44 51 84 86 98 98 77 74 61 64 58 61 56 62 58 57 67 80 71 51 37 34 55 78 89 86 82 77 74 71 72 74 75 75 75 75 78 77 74 60 48 49
25 27 42 40 44 40 32 42 70 85 76 81 84 82 85 71 52 59 66 44 55 62 65 72 82 73 54 39 39 61 72 77 77 74 72 74 74 78 79 82 81 79 80 79 71 57 48 48 39
36 30 25 30 38 40 34 48 64 89 74 76 72 70 80 74 55 54 37 36 46 54 63 64 65 65 56 43 48 63 64 79 79 79 76 74 69 70 80 89 85 82 82 71 57 51 48 38 24
36 35 33 31 34 38 44 44 64 83 82 79 76 68 71 69 60 56 52 45 48 56 64 70 73 69 57 42 58 82 90 89 92 83 66 60 62 64 75 83 83 82 73 59 54 49 40 30 24
32 35 36 33 23 39 44 38 62 68 75 84 82 80 71 64 59 60 57 55 49 55 55 63 70 71 58 46 73 92 95 90 89 84 74 65 66 70 78 84 84 76 61 58 53 47 38 36 33
34 32 33 31 25 34 32 39 52 68 66 77 78 75 66 63 65 62 59 62 56 52 49 51 55 69 56 59 73 82 77 86 87 82 82 64 72 79 86 84 79 64 61 57 54 50 46 44 33
32 31 32 34 32 23 30 34 33 46 61 68 71 62 68 69 62 61 61 54 50 46 51 52 56 68 69 63 71 76 96 100 90 89 70 66 74 82 84 78 67 65 62 57 58 59 52 39 30
32 30 32 34 35 34 28 36 35 37 58 62 65 68 64 63 67 61 61 58 52 51 56 63 63 67 71 68 69 68 76 84 91 83 67 71 77 79 80 73 68 67 57 61 67 56 57 50 27
32 31 33 34 36 37 35 37 31 40 46 58 54 59 59 59 58 56 54 51 53 54 56 63 69 72 63 69 71 71 85 87 84 78 73 79 80 77 74 71 71 58 62 63 76 75 68 61 16
30 31 40 47 48 52 40 41 41 42 37 36 44 51 51 55 54 48 49 56 56 57 58 62 64 66 66 67 71 71 83 87 91 83 77 84 83 79 75 76 69 62 64 60 74 76 80 24 24
34 42 56 54 65 56 43 50 46 31 28 33 38 39 39 48 50 48 46 53 52 52 58 62 64 69 73 70 62 66 71 90 95 91 84 88 82 80 74 72 69 64 61 76 88 84 50 51 39
37 41 61 50 62 48 47 54 37 30 34 35 33 28 26 40 43 47 42 46 50 50 53 60 68 68 66 70 68 72 77 97 96 96 94 95 79 78 76 76 69 63 73 80 83 87 52 42 44
38 43 38 70 73 78 54 44 28 35 48 48 42 38 32 38 42 42 44 42 46 51 50 55 60 60 64 67 73 81 88 97 100 100 100 98 86 84 80 79 78 77 81 85 83 65 50 49 57
32 38 45 58 52 53 50 43 41 30 32 47 48 44 45 42 43 45 47 44 42 43 48 52 52 55 60 67 75 86 93 86 73 70 94 89 92 87 82 85 77 86 83 80 75 65 56 64 64
42 40 44 46 56 54 64 48 36 28 31 36 45 41 40 39 43 40 42 45 47 51 52 50 57 67 71 75 84 91 85 78 68 71 64 67 82 88 86 80 78 75 78 70 91 70 66 65 65
33 40 43 64 43 65 75 55 29 28 30 29 30 36 37 39 40 47 49 48 48 50 55 56 63 64 55 62 81 76 71 70 68 62 90 94 89 87 64 72 67 79 81 88 89 69 67 66 51

GFSSGP_850_rhum_045.txt.gz
RH
17 13 10 22 18 22 20 16 19 19 28 79 71 65 67 78 70 62 96 100 99 98 90 79 64 51 49 46 40 28 16 11 8 7 10 12 16 20 19 19 23 31 37 45 48 50 54 44 44
14 11 25 24 18 17 13 18 25 44 60 63 69 82 79 84 95 91 100 95 98 99 94 81 64 52 50 47 37 20 11 8 9 12 14 19 20 19 19 25 38 40 40 47 54 53 51 46 48
15 20 30 24 22 15 15 18 31 45 73 61 60 80 84 93 97 92 95 97 99 99 95 83 64 55 54 48 28 13 9 9 12 17 20 19 19 22 26 43 43 37 36 44 44 45 45 50 53
14 31 19 18 17 17 16 15 39 52 62 59 64 77 97 100 98 93 93 94 98 100 95 86 66 61 56 42 18 9 9 13 17 21 19 19 25 32 42 46 36 35 37 37 41 44 50 54 54
19 22 24 21 18 15 14 38 65 49 60 60 63 82 94 99 98 92 100 99 98 97 96 90 76 74 51 32 12 9 12 17 23 20 19 22 28 38 44 36 35 32 33 40 40 44 48 48 47
23 21 22 19 17 15 18 64 63 62 64 66 77 80 98 100 99 100 97 100 99 99 99 100 84 70 32 16 12 11 15 19 21 19 22 25 29 30 31 34 36 38 41 40 43 48 48 49 48
26 24 24 22 21 17 38 66 65 65 63 65 80 78 99 99 93 99 100 99 99 99 100 100 99 91 71 26 14 15 16 22 21 21 29 33 36 36 38 44 47 46 45 47 51 55 56 50 50
22 20 21 19 17 17 51 66 72 66 69 74 81 77 90 99 99 99 97 100 100 100 100 99 97 90 64 46 23 17 24 22 24 28 34 37 38 44 47 49 50 54 52 53 58 62 62 61 61
20 24 24 20 18 17 64 58 70 72 81 84 84 91 97 100 88 88 100 100 96 99 100 100 94 78 66 58 44 29 26 27 28 34 33 34 36 40 45 47 52 50 53 62 62 62 63 64 64
22 25 22 18 17 26 61 57 64 76 86 88 99 95 99 100 99 90 95 96 100 100 100 95 84 73 75 61 48 37 32 29 26 30 33 35 36 38 39 45 47 57 64 63 63 63 65 66 68
23 22 19 17 17 30 56 60 59 70 73 79 95 100 99 100 95 90 97 100 98 99 100 88 71 62 67 60 63 59 42 29 29 32 32 35 36 38 40 39 52 61 67 65 66 69 70 70 69
23 20 19 17 35 53 51 59 61 60 64 71 98 100 100 100 98 96 100 98 100 100 99 82 68 61 78 68 61 46 33 29 32 33 34 35 37 38 38 45 54 61 66 68 72 73 72 73 71
22 18 19 25 41 44 50 49 53 74 88 87 97 100 100 99 99 100 98 99 94 88 80 80 81 80 72 70 42 46 35 35 34 36 32 34 36 40 53 59 64 68 71 73 72 73 74 73 68
21 26 36 42 46 44 41 50 54 91 100 100 98 100 96 99 99 97 96 90 98 89 77 87 81 80 66 42 31 48 40 41 45 55 57 62 66 64 65 68 68 71 74 73 74 74 75 71 53
25 30 36 41 41 43 44 44 48 94 99 100 98 94 89 87 97 99 94 79 80 76 64 71 80 59 57 48 35 53 47 48 76 76 76 74 70 70 73 75 76 75 77 76 75 76 73 53 51
23 29 34 32 40 43 36 36 57 99 99 99 91 73 90 75 70 71 61 67 59 64 65 68 75 74 64 54 36 45 50 69 78 79 76 73 71 73 71 74 78 79 78 78 79 74 56 54 41
32 26 27 26 40 42 35 40 59 99 87 81 84 70 74 77 74 73 60 55 48 53 60 67 79 82 66 49 38 43 55 79 80 72 74 72 71 69 76 76 84 83 81 81 77 60 55 43 31
34 31 31 29 36 39 41 38 59 88 84 67 78 73 74 76 56 63 69 60 61 57 56 65 74 77 69 53 40 42 59 72 71 80 80 76 71 69 65 83 91 88 84 81 67 56 47 40 30
31 33 31 28 25 36 40 38 40 75 84 79 74 81 78 53 54 55 56 52 50 57 62 67 69 69 71 57 43 49 61 62 82 86 83 73 63 62 65 75 86 87 84 72 60 53 49 41 48
35 33 32 29 26 29 29 27 33 62 71 71 70 75 62 56 58 61 62 54 49 42 49 59 66 72 72 60 40 46 63 79 92 85 82 79 69 67 72 83 87 86 79 65 62 53 53 61 48
34 32 34 32 30 26 29 27 32 51 61 65 74 74 76 74 59 59 62 59 55 46 44 49 58 63 70 65 53 53 75 85 86 80 90 87 77 70 77 84 88 81 71 67 55 56 64 61 37
36 29 32 33 32 30 27 27 28 35 54 58 57 70 70 63 56 55 56 58 56 54 52 49 54 59 61 73 61 55 64 71 72 80 84 87 76 73 81 85 83 75 69 66 56 61 71 63 30
32 34 34 34 35 37 34 31 26 36 35 47 53 59 64 50 51 52 53 54 54 51 47 47 53 56 58 66 74 66 69 71 77 81 94 92 75 75 80 83 82 75 69 61 60 65 80 86 79
32 33 38 42 40 43 37 33 30 29 29 29 32 50 56 49 42 46 52 59 54 55 53 52 54 60 66 72 78 81 82 77 83 96 99 85 78 78 79 81 80 74 70 62 62 77 90 87 70
33 36 43 49 53 48 44 43 31 27 27 28 29 30 42 53 48 46 49 50 57 57 58 54 54 58 66 74 80 75 79 81 88 98 96 89 84 80 83 81 78 75 70 65 67 81 90 82 57
39 36 51 46 50 41 46 42 24 29 28 41 40 34 34 38 44 47 45 45 47 45 51 56 57 58 64 60 69 76 76 76 80 89 89 89 91 86 89 83 80 77 72 80 77 95 79 58 46
37 40 37 58 69 61 41 35 25 31 31 37 41 38 37 32 32 34 44 48 48 44 42 46 52 55 58 58 60 65 80 80 70 77 88 93 97 96 97 86 83 79 74 80 91 76 68 51 45
35 35 44 50 54 56 41 40 25 25 27 33 38 40 33 32 36 40 42 42 46 49 48 52 56 56 58 61 64 66 72 82 77 84 93 86 90 97 100 88 84 80 79 89 79 72 68 73 54
42 40 44 40 46 46 46 34 32 27 25 30 36 35 35 34 34 35 39 45 48 49 47 49 54 54 52 55 61 66 71 83 90 87 78 75 97 100 100 90 87 79 81 82 73 78 92 68 76
35 39 40 53 46 55 56 40 27 30 26 29 28 35 33 33 32 35 38 41 43 46 49 48 49 50 52 62 62 62 58 61 67 72 69 72 89 100 99 97 85 83 87 82 74 93 99 92 71

GFSSGP_850_rhum_048.txt.gz
RH
17 14 13 21 14 11 12 10 9 16 15 41 52 46 46 56 52 66 96 100 98 100 98 59 50 52 65 71 71 61 48 42 28 14 10 10 12 13 16 21 32 44 50 52 49 40 40 45 46
15 12 23 14 12 12 10 10 12 22 36 54 57 56 48 74 86 92 98 99 99 98 100 91 52 49 50 49 47 41 32 20 11 10 11 13 17 18 20 27 37 47 48 54 48 40 42 46 45
15 15 19 13 11 11 10 11 15 20 47 47 45 58 60 79 89 95 92 96 99 99 100 96 55 53 51 48 38 23 14 10 10 12 16 19 19 21 32 37 40 50 55 54 44 42 46 48 46
21 21 16 12 11 10 11 9 11 18 37 44 44 55 84 98 95 99 98 95 100 96 100 79 58 57 53 38 21 13 10 10 12 16 19 19 20 32 36 34 36 46 45 44 44 47 48 49 43
18 14 13 12 11 11 8 10 26 24 32 39 45 52 72 99 95 95 99 96 99 100 100 76 64 63 44 25 15 10 10 12 16 19 18 22 32 36 34 34 36 38 40 44 46 47 50 46 45
15 14 13 12 11 9 12 28 38 40 43 50 50 53 81 97 99 95 100 100 100 100 100 93 84 64 50 48 18 14 14 18 19 18 20 30 42 38 35 34 36 40 43 41 44 48 48 43 38
14 13 13 12 15 15 20 41 44 44 42 48 56 51 98 97 98 99 96 98 99 100 100 100 91 73 66 43 63 30 22 24 18 18 24 38 38 32 32 35 38 39 42 48 52 50 48 51 52
16 12 12 12 15 16 25 42 55 50 46 64 64 50 84 92 100 99 97 93 100 100 100 95 90 70 64 54 51 43 28 23 20 21 28 35 35 36 40 44 45 48 52 55 58 58 60 60 57
18 15 12 14 15 15 28 36 55 65 56 64 73 71 96 97 100 99 99 99 99 100 100 100 98 72 68 64 50 48 25 24 27 35 38 44 52 49 64 55 53 55 56 59 61 64 64 63 60
16 15 13 12 13 14 25 40 49 58 56 60 90 98 100 100 99 99 100 100 100 100 100 100 98 86 78 76 65 50 43 37 38 44 55 74 75 76 64 53 56 59 60 63 65 65 65 67 64
16 16 13 13 14 16 23 40 48 44 48 48 78 99 100 100 99 96 100 100 99 100 100 100 92 84 77 76 56 42 40 33 39 52 68 72 63 50 51 53 64 62 66 69 67 68 69 69 68
17 14 14 15 23 31 37 41 42 48 58 71 97 99 99 95 97 98 99 99 99 100 94 96 96 93 80 65 65 49 49 53 41 41 38 41 42 44 59 81 79 62 77 70 69 70 71 71 69
18 15 16 19 28 35 43 38 39 59 73 82 100 100 98 98 98 99 100 100 99 100 100 99 85 79 78 75 68 63 57 47 57 36 38 47 46 39 46 57 65 74 71 74 72 73 73 73 68
17 18 22 28 34 35 30 36 42 69 78 90 95 93 99 98 100 99 100 100 99 99 93 82 87 74 72 64 64 61 50 41 38 39 37 37 38 38 42 56 67 73 78 75 75 75 74 73 62
19 21 24 26 31 30 35 34 32 69 77 86 72 84 94 98 98 99 96 96 97 91 98 93 89 66 67 58 43 49 39 39 47 56 36 41 48 51 61 66 69 71 75 75 75 75 76 69 50
17 19 19 26 28 34 31 29 40 72 72 67 61 70 73 93 96 95 97 96 87 85 94 99 98 90 84 59 43 66 66 49 62 69 65 70 72 73 75 78 76 78 78 77 76 77 75 59 48
18 17 17 18 26 27 29 25 40 72 65 54 54 62 65 73 77 89 92 88 88 84 91 97 98 89 52 44 36 48 58 57 91 72 76 79 76 72 72 75 76 80 79 78 78 78 68 54 45
16 18 16 18 25 29 28 24 38 54 57 50 47 55 63 63 71 74 84 83 79 80 91 94 93 93 75 62 48 60 83 84 92 81 75 72 74 73 73 74 74 83 83 82 81 75 59 53 54
20 19 17 19 20 26 23 20 20 43 53 48 44 47 52 59 62 75 70 73 73 79 91 93 96 97 89 96 82 69 76 85 93 90 69 76 77 72 72 71 70 85 87 84 81 68 56 51 50
25 22 20 21 21 23 17 17 17 32 42 43 38 41 42 50 59 69 77 73 72 74 82 85 87 95 98 95 85 72 68 80 86 90 79 79 76 68 65 65 73 83 89 86 78 64 57 64 60
27 23 22 22 22 20 20 18 20 26 36 44 42 38 40 43 54 64 70 77 80 75 84 82 83 91 99 98 95 83 79 89 93 91 79 82 78 75 71 71 75 82 87 85 74 63 56 64 67
27 21 22 24 24 23 21 22 16 21 29 38 44 46 46 44 48 55 66 73 77 79 78 81 84 89 95 99 95 87 69 78 89 96 91 79 87 82 78 71 77 83 87 82 72 63 60 61 70
23 22 24 24 23 24 22 23 17 23 21 25 31 36 42 42 42 46 54 65 73 77 81 78 78 82 92 95 95 94 79 71 81 98 98 82 81 86 82 76 84 87 83 78 70 64 58 62 80
24 27 26 27 26 35 20 22 18 16 16 14 16 27 35 41 43 42 45 56 64 73 80 89 84 84 89 94 90 92 94 82 83 100 89 75 79 88 86 82 86 84 82 77 72 64 60 68 73
26 27 35 39 40 38 28 27 18 16 16 19 19 19 23 34 42 46 46 53 63 73 84 70 58 78 77 72 59 58 65 82 92 81 82 81 82 91 87 84 85 84 84 79 73 65 62 74 84
26 25 34 45 41 32 32 29 19 17 18 23 29 30 31 29 34 41 48 50 59 72 85 82 58 56 68 56 58 68 72 74 78 85 84 80 85 93 93 90 85 86 85 80 74 71 72 88 68
30 33 24 36 50 43 25 22 16 17 18 19 24 29 29 30 32 38 40 47 58 70 83 84 85 85 84 57 59 67 63 61 80 89 86 89 99 100 100 96 89 88 89 81 74 73 86 82 59
27 24 36 33 46 42 28 25 18 16 16 16 16 21 30 40 39 40 43 47 56 67 82 92 93 89 90 79 65 70 80 81 87 94 87 90 92 99 100 100 97 95 93 85 77 89 79 87 76
33 32 31 29 32 37 36 25 16 15 16 19 20 22 25 36 44 50 52 56 63 69 79 87 78 88 92 89 86 71 72 77 86 91 95 93 94 93 84 96 99 98 96 89 83 91 96 93 100
20 23 27 35 32 33 35 29 15 16 18 20 20 24 28 34 42 52 60 66 68 74 76 74 78 82 86 93 92 95 87 86 88 93 96 89 98 96 100 100 100 100 98 87 93 100 98 97 100

GFSSGP_850_rhum_051.txt.gz
RH
18 19 20 15 13 10 10 9 6 11 13 23 26 28 32 64 72 62 79 93 93 95 90 65 83 95 97 86 82 75 73 71 53 37 19 12 12 13 18 58 67 67 50 40 36 38 40 39 34
27 18 17 13 13 10 9 6 9 9 18 32 36 36 29 63 62 88 96 82 99 95 96 76 90 95 90 87 81 77 77 54 37 17 10 12 14 17 26 39 65 66 58 38 39 42 42 39 36
23 20 15 13 11 10 8 10 10 12 21 30 26 34 44 59 78 87 93 57 73 99 97 88 85 95 84 83 81 78 55 36 15 10 12 14 18 24 32 45 52 69 62 39 41 45 44 39 36
18 16 12 10 10 8 7 8 8 9 15 23 26 30 65 94 83 97 94 85 91 99 88 84 69 84 85 83 75 53 36 16 10 12 15 20 24 34 44 53 54 59 45 40 46 48 43 40 36
15 11 11 12 9 7 7 7 8 13 14 19 24 28 54 92 100 97 99 86 94 94 95 92 67 76 74 63 52 35 17 11 14 19 22 24 32 41 44 54 55 52 44 47 46 44 42 35 29
13 10 11 11 9 8 8 13 18 16 18 26 31 27 78 98 97 95 98 98 96 97 100 87 76 74 67 55 34 19 13 16 22 25 24 34 37 33 39 44 48 47 46 46 44 42 36 36 33
12 11 11 9 11 11 13 23 28 31 27 28 36 35 86 98 98 93 100 100 99 100 100 89 90 80 66 38 24 18 20 26 30 26 30 40 35 38 42 41 43 44 42 45 45 47 50 47 43
12 10 10 9 14 19 19 25 36 36 30 46 44 38 59 97 98 100 92 97 100 99 100 88 78 81 69 69 44 62 63 44 27 33 39 38 35 39 38 39 40 43 48 52 54 57 57 52 48
12 12 11 11 12 17 16 22 38 50 39 44 62 72 95 87 98 100 100 100 100 100 98 93 89 77 82 68 54 60 50 27 27 47 46 41 38 44 59 44 46 49 54 57 60 61 60 59 53
12 12 12 10 12 14 14 25 34 40 36 44 90 99 99 100 99 94 98 100 99 100 100 99 99 94 66 46 61 60 60 53 41 46 44 58 59 80 62 50 51 55 60 62 63 64 65 64 59
12 13 10 10 13 14 15 24 32 32 37 44 60 98 100 99 99 96 99 100 99 100 100 99 98 87 68 85 71 67 69 55 53 56 50 55 76 79 57 57 59 62 66 64 65 67 67 68 65
13 11 11 11 14 18 24 26 30 39 48 60 96 98 98 99 98 98 100 100 100 100 100 100 97 77 79 82 85 80 64 50 60 52 56 75 77 71 66 79 82 79 78 70 76 75 68 69 65
12 11 12 13 18 24 27 26 28 42 55 88 98 98 97 86 99 99 100 100 100 100 100 99 91 91 94 98 91 82 82 61 59 69 85 51 72 82 82 81 81 78 78 83 79 74 72 71 68
13 14 13 16 19 19 24 25 31 48 64 88 97 86 75 78 99 98 100 99 99 100 99 100 99 97 99 91 81 63 57 52 68 75 51 56 79 83 82 86 80 81 82 80 79 77 78 73 70
14 15 13 16 19 18 24 34 30 47 57 64 68 62 69 80 86 96 99 99 90 96 94 94 91 95 94 72 64 61 57 74 83 54 56 86 80 62 80 85 85 84 83 84 80 80 78 74 61
12 12 16 52 18 19 29 79 35 42 52 46 48 54 61 78 74 81 91 99 98 94 94 94 91 78 68 71 67 66 86 59 49 73 80 82 82 85 90 86 89 89 90 85 83 80 77 70 58
13 14 16 27 14 18 20 64 33 35 42 37 41 46 53 64 64 76 83 80 80 85 85 87 85 80 79 85 80 82 75 64 60 71 84 92 90 82 88 94 93 85 88 86 85 83 77 67 55
13 13 12 12 29 16 20 20 29 32 34 35 35 40 46 53 58 68 78 77 74 80 95 92 90 84 86 83 72 83 78 75 71 82 92 92 94 85 76 94 94 76 89 89 90 83 77 65 56
13 13 12 14 16 19 22 18 29 29 31 34 36 36 40 48 53 66 70 73 73 71 84 90 92 92 93 92 83 67 76 77 76 86 91 87 92 72 73 91 93 75 89 92 91 88 78 66 60
16 17 14 16 15 18 20 18 17 22 28 28 31 33 36 40 50 60 70 68 69 69 78 83 83 84 91 88 77 67 60 66 65 73 84 89 91 96 79 91 87 72 92 88 93 86 78 70 69
17 19 19 20 26 14 15 15 12 13 21 26 26 27 29 35 44 56 60 62 68 67 73 77 81 89 91 89 74 69 62 61 67 70 83 92 95 97 80 84 91 85 77 91 85 85 79 69 71
19 15 18 17 18 20 18 22 24 14 19 23 25 24 25 29 37 46 58 60 62 63 69 73 74 73 76 79 74 71 65 59 63 70 75 98 80 74 79 77 80 75 77 85 86 89 83 73 66
18 18 18 17 19 19 27 21 23 15 16 18 24 26 26 27 31 39 48 55 61 64 65 71 70 70 70 74 78 77 74 63 65 74 79 91 96 75 82 96 89 80 78 88 88 86 83 74 67
16 21 20 20 20 31 20 22 20 19 13 13 14 20 26 27 29 33 38 46 53 60 66 68 70 67 68 72 83 80 75 72 61 68 79 89 97 100 82 89 87 84 84 87 86 86 81 73 77
20 23 35 37 32 36 20 18 16 30 13 12 13 14 18 24 28 30 32 38 48 56 65 70 70 64 67 72 78 85 82 82 77 68 84 93 92 98 75 76 85 88 83 85 87 89 86 79 66
22 22 36 53 46 34 24 23 16 15 13 13 14 17 17 19 25 28 30 33 41 51 62 71 70 70 65 76 86 89 91 90 89 84 84 90 93 96 84 80 93 90 90 88 90 92 85 81 69
23 26 19 29 34 40 26 17 20 14 11 13 14 18 20 21 22 24 30 33 38 48 59 70 73 73 75 81 74 66 98 98 98 86 98 93 96 76 83 91 98 95 96 94 90 94 95 73 76
20 21 29 30 47 49 23 20 18 16 14 12 12 14 21 27 25 24 27 30 38 44 58 72 80 78 80 84 88 91 97 96 77 84 99 98 74 91 98 96 97 97 98 96 98 96 87 79 88
26 29 25 25 28 50 36 24 14 14 13 13 13 14 15 24 32 33 33 33 34 39 52 68 77 77 74 76 91 100 99 81 78 93 99 99 100 100 100 99 98 100 100 100 100 95 82 90 90
18 23 24 35 36 29 31 30 14 14 12 14 14 15 16 19 29 40 43 46 46 50 54 66 75 77 75 78 85 93 98 98 98 99 98 98 98 98 99 99 100 99 99 100 100 99 97 92 98

GFSSGP_850_rhum_054.txt.gz
RH
16 21 20 21 16 15 14 9 6 6 11 38 57 47 56 49 60 57 94 50 50 82 71 96 99 99 88 75 71 67 66 65 59 40 21 13 18 20 61 52 47 41 34 34 39 36 31 29 25
19 29 16 14 17 18 10 8 11 11 18 29 26 27 34 66 66 70 81 89 77 96 75 92 96 96 90 81 76 71 70 66 48 29 12 14 15 56 65 65 51 38 34 39 36 33 32 30 30
16 22 15 15 17 15 11 9 9 11 11 17 27 34 56 81 63 61 87 95 82 69 87 77 88 97 92 85 79 75 73 58 38 15 11 13 21 61 67 69 52 36 38 40 38 35 33 29 32
22 16 15 14 10 8 8 8 7 8 8 14 16 46 77 79 90 80 82 86 93 91 74 61 79 98 97 88 82 79 69 45 21 11 14 17 28 46 62 63 56 37 39 42 39 36 31 25 28
17 12 13 12 11 10 6 6 7 8 10 13 22 47 88 88 95 95 99 84 79 90 84 81 69 95 93 92 85 79 53 27 11 14 19 26 39 48 55 56 54 38 41 41 38 30 26 24 24
15 12 13 12 11 8 7 21 22 17 15 14 20 31 90 85 91 87 96 99 85 91 87 90 89 99 99 95 88 61 34 13 14 20 26 35 45 52 53 51 43 41 42 40 35 36 34 28 24
13 12 13 11 9 16 16 20 25 35 66 48 40 61 92 96 75 100 86 100 100 99 99 92 100 100 100 94 70 38 20 17 25 28 35 43 47 49 49 46 43 42 42 41 47 47 41 32 28
11 10 12 9 11 19 25 25 40 30 81 60 69 64 79 98 78 89 95 100 100 99 97 85 82 82 84 92 68 57 59 39 32 35 49 47 46 48 46 47 44 43 47 50 54 54 46 39 31
11 13 14 13 11 18 22 27 49 34 43 64 95 94 93 97 71 82 90 94 99 100 99 88 74 84 85 79 63 54 59 41 39 50 53 52 50 52 49 47 44 50 53 57 58 58 55 46 35
10 13 15 9 10 12 12 15 47 29 32 50 46 96 99 98 100 88 98 99 98 97 100 94 85 78 90 80 71 66 70 66 61 56 52 48 56 51 45 46 51 57 57 60 62 62 62 60 57
10 13 11 9 12 12 14 46 36 62 54 60 44 91 97 95 99 100 98 98 100 99 100 100 94 96 89 81 64 76 66 61 61 58 50 64 53 59 48 53 57 61 61 61 65 67 69 70 60
11 9 10 10 12 15 17 38 63 53 71 79 84 98 96 93 99 100 99 100 100 100 100 100 100 96 90 83 73 58 63 72 75 70 67 64 44 76 53 55 57 61 63 64 72 74 75 66 61
10 10 10 11 12 16 19 22 47 48 82 92 96 92 87 100 89 97 99 99 100 100 99 100 100 94 83 68 84 83 84 71 74 69 52 54 78 70 58 59 58 65 76 71 78 76 69 69 64
10 11 11 11 13 16 18 59 62 85 77 81 82 77 81 98 92 100 99 98 100 99 100 98 99 87 90 79 80 87 91 75 56 56 67 72 75 76 78 82 82 78 80 78 81 75 75 72 69
11 12 12 13 14 16 18 36 62 52 64 69 65 57 69 85 87 100 94 99 98 98 98 93 89 87 97 91 94 93 79 69 60 54 64 74 78 79 82 83 81 81 82 81 80 78 79 75 66
14 12 14 14 17 18 29 56 46 40 54 53 49 51 74 69 89 98 92 89 93 88 91 91 93 99 100 100 96 95 74 65 58 60 54 62 81 82 76 78 86 84 84 83 82 79 76 75 65
14 16 13 20 19 21 40 67 61 44 50 37 42 48 58 60 77 94 91 92 90 87 87 85 94 88 87 80 71 70 68 58 59 44 58 43 54 83 74 87 87 85 85 84 85 81 80 75 66
16 15 13 12 17 16 18 54 70 48 33 30 37 40 51 54 66 79 88 91 92 81 68 72 74 71 69 66 70 63 55 53 42 44 67 77 72 69 76 83 87 82 88 87 87 85 82 76 68
15 14 14 16 18 19 24 24 44 37 27 28 32 37 43 50 60 74 75 78 80 82 88 70 72 70 82 81 63 76 85 78 60 65 67 84 79 72 72 75 95 81 86 87 87 87 83 78 65
17 17 15 12 16 16 13 17 37 36 54 28 31 34 39 44 57 72 72 74 78 80 76 82 71 63 74 80 74 65 80 76 61 69 86 76 78 75 76 76 86 77 79 90 91 84 82 82 71
16 16 15 20 22 16 14 15 13 31 38 25 29 30 34 40 53 64 71 74 74 83 86 82 82 79 79 78 82 75 68 62 69 70 76 72 88 85 82 72 88 87 76 89 82 78 78 81 70
19 12 14 19 21 22 18 25 14 15 18 22 23 26 30 35 46 59 64 71 69 74 74 81 82 83 86 75 82 80 70 61 65 63 69 70 80 79 81 91 92 94 82 84 79 72 76 82 73
18 17 18 15 17 18 20 28 20 16 18 20 23 22 25 29 40 52 59 66 70 69 71 72 76 79 76 78 70 79 69 64 59 63 65 72 82 75 76 90 90 90 87 81 84 82 81 83 80
15 19 21 19 20 33 20 24 30 21 20 19 18 21 22 24 33 43 53 57 62 64 70 69 72 74 74 81 73 77 76 68 65 62 67 72 77 79 77 80 89 87 81 84 87 86 89 87 84
18 22 36 40 39 42 21 23 21 24 22 15 19 19 22 23 26 34 44 53 58 60 61 68 70 73 72 71 72 75 72 83 70 65 66 72 74 77 79 86 83 77 79 86 88 88 94 90 89
24 24 37 55 64 44 39 32 20 18 17 14 12 13 16 23 25 28 33 45 51 57 62 63 68 72 71 69 69 69 66 72 79 77 65 76 83 82 82 82 83 73 79 91 96 98 97 96 93
24 29 20 29 42 54 43 31 22 18 15 11 13 13 15 17 24 28 28 32 44 49 55 63 68 70 68 66 63 55 50 68 70 80 84 76 83 92 91 97 96 90 94 99 100 98 95 97 96
19 20 32 28 54 58 30 27 27 20 14 12 12 14 17 22 22 20 24 28 33 44 50 56 62 68 69 64 64 63 55 66 62 77 95 93 92 86 77 91 100 100 100 100 100 100 100 100 100
20 25 30 28 29 49 50 33 25 20 14 14 13 13 14 20 26 26 24 25 30 35 50 59 65 67 68 74 62 74 77 71 71 95 98 99 99 91 94 99 100 100 98 100 99 99 100 100 97
17 23 26 43 38 37 54 43 16 19 14 14 14 13 14 17 28 32 33 32 33 36 45 54 63 67 70 72 69 74 84 90 100 90 99 100 95 99 99 98 98 99 98 100 100 100 100 99 99

GFSSGP_850_rhum_057.txt.gz
RH
14 24 27 29 35 30 30 21 14 18 31 43 38 26 53 63 63 94 73 66 64 56 51 87 92 84 66 61 59 60 61 58 46 28 13 15 18 25 25 39 33 25 30 32 28 24 30 51 63
14 23 34 30 28 34 26 15 15 14 31 34 35 34 56 84 58 90 85 60 48 57 44 42 93 92 72 66 64 64 63 59 41 18 15 15 28 33 41 39 29 32 31 27 27 26 31 57 66
16 20 24 27 33 33 25 15 11 11 11 21 34 66 69 70 53 65 91 77 62 80 82 86 88 68 79 72 69 70 65 53 34 13 15 36 49 49 46 35 32 33 31 30 28 25 33 52 61
22 22 20 25 27 19 18 11 11 10 8 13 42 72 79 96 72 51 77 93 72 82 67 91 91 75 94 85 74 72 66 49 22 12 16 58 63 61 46 34 33 34 34 32 27 22 36 55 58
28 28 26 27 24 16 14 19 15 26 35 46 39 80 79 81 84 64 74 89 96 85 80 78 84 79 69 99 86 76 61 40 14 13 22 66 59 65 46 33 34 36 34 28 24 22 33 52 52
22 19 29 26 19 14 22 20 30 56 43 56 66 78 96 98 78 70 81 86 85 82 87 92 90 70 82 86 98 76 54 24 12 16 25 52 60 67 45 34 37 37 32 31 29 23 23 47 49
21 24 25 20 15 20 23 23 58 63 64 57 67 81 68 51 86 66 72 76 92 82 92 94 94 94 99 100 100 91 36 21 17 24 46 65 69 59 48 38 40 39 38 43 37 28 24 28 45
19 18 20 18 16 24 20 23 50 53 64 62 71 71 72 60 88 75 75 90 93 92 95 98 98 97 98 97 90 60 53 22 22 28 52 62 62 52 49 43 42 42 49 50 45 35 27 31 42
15 20 22 18 17 23 21 32 40 52 53 66 72 73 67 91 99 88 83 84 99 99 100 95 97 98 94 85 66 55 29 34 35 49 58 62 61 58 55 48 45 49 54 55 53 43 36 34 41
16 22 19 13 14 16 34 44 49 54 69 79 95 84 99 100 100 94 73 76 99 100 100 100 94 98 93 81 64 48 31 50 54 62 61 67 59 54 53 47 51 54 58 61 59 61 60 57 41
13 18 14 11 14 14 24 35 54 54 64 66 78 92 94 100 99 100 98 99 100 99 100 98 95 94 84 78 73 51 37 46 67 73 70 55 46 51 47 51 56 56 60 62 63 64 63 61 56
15 12 11 10 13 16 27 44 79 69 90 95 88 94 96 94 98 99 99 99 100 100 100 100 94 92 89 82 66 60 52 67 66 63 53 40 45 47 49 54 59 58 60 64 66 66 65 67 61
16 11 10 12 11 17 36 66 77 73 59 89 94 90 93 95 97 99 96 99 100 100 100 100 100 97 96 78 75 67 81 74 70 66 55 47 52 55 50 55 57 62 63 68 71 72 71 70 64
15 13 13 11 11 14 40 56 47 72 40 79 88 87 87 94 99 100 99 99 100 100 100 100 99 95 88 81 80 85 92 84 78 53 61 54 51 64 54 57 63 65 68 75 76 79 73 70 65
18 20 16 13 15 24 32 43 54 54 68 76 77 87 90 86 96 98 94 96 99 98 99 95 93 98 92 87 76 71 61 63 66 74 57 53 73 69 75 80 81 78 80 81 82 81 75 72 69
22 20 23 16 20 27 26 45 48 43 52 70 68 81 82 84 82 91 98 100 100 98 97 100 96 84 76 72 73 69 64 74 67 67 70 67 73 73 83 84 86 83 81 81 83 81 78 77 74
26 29 24 18 20 32 37 55 43 47 49 62 59 70 70 82 92 85 89 97 100 100 95 95 89 91 79 81 76 75 76 86 85 63 46 54 64 59 80 77 77 82 83 84 83 81 80 77 72
30 25 21 21 24 38 49 55 47 43 58 58 58 66 67 73 76 74 81 85 90 95 92 90 87 90 84 93 83 77 88 68 55 48 54 50 46 62 64 69 79 88 82 85 83 79 80 79 76
22 24 23 18 18 21 45 57 53 44 56 62 59 59 61 69 72 72 71 81 88 87 85 90 97 97 89 99 88 68 67 58 56 56 48 42 44 49 52 61 78 91 82 76 78 74 81 80 79
23 24 24 19 22 21 28 58 48 53 53 49 50 56 56 71 76 77 71 68 68 66 64 76 80 81 87 76 69 69 60 60 61 54 41 60 68 74 70 57 75 79 76 84 80 74 78 76 82
23 24 24 22 22 21 23 30 48 45 55 41 46 49 53 60 71 77 75 64 62 66 59 58 56 59 63 57 59 61 65 54 61 47 57 75 73 74 74 71 74 76 77 83 79 76 72 73 81
26 21 18 18 26 37 24 39 28 53 59 66 49 44 50 64 62 66 68 68 69 68 63 56 55 62 61 60 58 57 55 73 76 65 52 66 77 75 69 70 75 78 79 86 82 79 77 81 83
24 22 24 23 27 24 27 36 32 41 55 62 49 40 45 57 58 64 62 53 61 69 78 69 61 59 61 65 69 72 76 71 59 61 65 65 72 77 74 77 77 74 87 86 88 82 85 86 90
19 22 22 28 31 46 32 33 35 29 23 30 31 36 40 50 57 56 55 56 61 71 78 81 75 71 73 74 70 83 95 82 73 62 64 66 65 73 74 80 82 73 83 90 87 90 92 91 95
22 28 49 57 54 59 33 38 32 27 27 22 29 28 34 40 54 58 63 64 60 67 80 81 79 77 79 74 74 72 72 82 76 66 61 61 66 70 76 76 78 78 80 79 96 98 98 97 99
27 33 60 56 70 60 43 46 32 26 22 17 14 23 23 34 44 50 53 54 56 56 65 76 75 74 79 80 75 78 68 68 76 76 69 64 65 67 67 73 75 71 70 78 100 100 100 100 99
31 37 30 41 46 66 54 41 30 27 24 22 15 18 22 25 39 44 46 47 52 55 54 58 65 69 72 76 76 78 74 68 69 73 67 70 71 81 82 80 75 66 72 88 96 99 99 100 99
24 25 40 41 59 64 48 45 44 30 25 20 16 17 16 21 25 36 46 45 44 45 47 52 56 58 58 65 70 71 74 72 71 74 75 72 63 78 84 74 67 76 98 98 98 100 100 100 100
30 29 31 39 53 65 62 52 28 28 27 21 16 15 19 22 23 25 31 45 43 41 44 47 54 60 66 66 64 71 70 69 75 73 75 79 81 87 71 71 94 100 100 100 99 100 100 100 100
22 28 32 66 55 56 66 58 26 23 24 19 16 14 14 18 24 21 26 31 37 46 43 48 56 63 62 66 73 72 72 76 92 88 78 78 86 99 99 99 98 98 99 97 95 97 100 100 100

GFSSGP_850_rhum_060.txt.gz
RH
15 22 28 29 32 37 36 26 19 19 23 35 36 43 64 64 74 76 64 70 85 70 72 52 66 80 70 59 53 54 53 44 31 14 13 14 15 16 34 33 22 21 26 29 40 52 64 72 86
15 20 28 35 34 36 33 22 18 17 14 39 46 58 69 64 84 84 78 81 74 57 57 63 55 77 93 62 58 57 52 40 23 14 16 14 16 32 32 24 26 29 26 28 46 59 66 68 71
17 19 24 38 41 39 32 20 19 15 42 37 65 68 72 79 65 88 92 81 80 70 69 71 57 60 67 70 64 60 52 37 18 16 17 18 28 34 27 27 26 24 24 28 50 65 69 70 68
25 26 24 29 30 26 23 19 15 39 48 47 53 83 82 94 98 86 92 73 62 66 75 59 60 82 94 76 69 70 51 31 19 20 25 30 36 32 26 27 26 27 25 30 51 64 66 65 64
26 30 31 30 29 23 16 19 43 54 50 58 53 60 63 73 88 87 89 87 79 73 90 93 93 99 94 93 85 91 50 25 25 67 51 42 40 30 29 30 30 28 24 35 55 61 55 56 62
26 25 36 37 27 18 21 39 41 49 50 51 65 78 64 62 74 75 80 71 83 86 85 84 93 99 97 89 91 96 42 24 61 77 68 55 41 33 32 34 32 26 23 23 48 52 53 62 63
27 30 32 27 22 18 23 37 47 50 52 57 69 76 77 60 60 71 74 56 62 95 90 89 88 94 86 95 71 87 36 18 48 72 78 69 43 37 38 37 32 30 28 22 40 51 51 55 55
21 27 26 24 20 20 23 44 54 46 63 76 70 69 71 64 77 74 65 53 59 88 81 90 97 97 96 92 86 83 58 31 25 56 68 69 54 38 41 38 37 42 37 27 23 40 48 50 51
19 27 30 23 17 20 23 49 50 53 53 76 80 76 86 68 75 75 79 74 93 95 87 91 96 97 99 98 92 82 41 48 58 66 73 72 60 44 44 41 47 50 46 36 28 28 41 49 48
19 27 23 17 14 20 44 52 59 59 67 78 82 85 98 95 90 79 100 96 98 100 100 98 100 100 94 92 91 58 35 23 48 59 67 66 62 47 45 46 53 55 54 44 37 32 34 41 43
17 21 15 14 12 18 54 69 58 72 91 81 74 85 92 96 96 91 98 100 98 100 100 100 100 100 94 92 72 57 23 36 48 54 62 65 60 50 46 51 54 57 59 56 55 51 46 42 40
16 14 14 13 12 22 48 60 62 61 50 60 55 83 87 90 92 98 97 99 99 100 100 100 99 99 94 81 65 46 44 47 50 67 64 59 55 48 48 52 54 58 61 60 60 60 60 62 56
19 18 15 13 16 30 50 66 55 58 76 78 89 92 87 87 96 96 91 96 100 100 100 100 98 100 96 79 59 66 59 56 63 66 64 46 50 47 42 49 52 59 63 64 62 64 66 69 66
20 22 20 16 14 32 50 62 54 64 79 95 89 87 83 86 99 97 91 99 99 100 97 97 100 100 93 87 83 46 69 72 67 67 49 45 44 44 40 49 54 60 62 66 68 69 73 70 69
20 24 21 18 15 34 36 45 46 60 69 87 94 90 86 84 81 100 93 97 100 100 100 99 100 100 96 79 70 74 72 68 68 64 57 47 44 42 48 51 53 58 66 73 76 77 80 70 65
24 24 27 20 15 25 31 40 50 58 72 78 90 96 88 77 77 88 97 95 100 100 100 100 100 94 94 87 67 66 95 81 68 65 47 48 48 52 54 62 70 70 76 80 81 80 81 74 71
30 35 29 25 17 26 35 39 51 66 72 71 83 96 88 80 94 81 82 98 98 100 100 100 99 98 93 85 88 97 96 78 67 62 53 51 49 50 59 63 72 78 82 83 83 83 82 77 75
36 33 28 29 23 40 45 44 57 57 58 65 83 90 82 80 82 67 70 93 98 97 98 100 98 90 88 85 93 96 84 71 60 55 54 52 58 70 78 73 78 84 85 84 84 84 83 81 80
27 30 32 26 26 35 42 43 51 61 57 69 70 85 83 73 77 64 68 80 99 98 95 99 94 88 81 80 74 71 66 60 62 60 56 69 76 69 69 66 64 71 77 78 84 84 85 82 80
29 31 30 24 24 25 48 45 45 57 62 64 66 76 78 77 85 73 71 77 91 97 92 90 81 72 71 75 74 69 70 70 67 62 65 70 56 47 44 43 49 66 79 74 86 85 84 79 80
28 30 30 26 20 24 48 44 52 48 49 50 53 62 68 66 76 70 72 70 84 87 83 82 81 83 75 84 84 80 77 70 70 80 70 54 46 39 49 65 67 57 77 73 80 84 82 76 77
34 25 24 25 28 38 26 42 50 56 57 56 55 61 67 68 67 63 57 65 69 64 70 82 88 85 82 82 84 70 72 66 61 57 51 48 41 50 62 66 77 76 70 72 76 86 84 81 83
29 26 27 26 28 28 27 37 35 53 54 50 53 56 61 64 61 64 55 46 49 54 51 65 79 78 70 81 74 66 62 60 54 51 49 41 37 53 64 70 77 73 71 68 75 78 82 86 86
23 24 25 34 37 49 34 36 39 68 50 42 44 51 54 63 62 59 55 50 49 54 54 51 51 48 51 52 52 52 50 52 51 48 48 41 38 49 62 73 82 72 77 76 74 73 76 90 91
24 33 50 54 54 58 35 43 37 27 32 41 41 48 47 56 63 67 65 65 56 54 61 57 53 51 50 50 50 51 51 47 49 56 56 56 60 60 61 68 76 77 78 80 80 78 79 100 98
31 35 60 56 68 57 45 50 37 27 26 26 35 36 41 49 59 63 58 58 55 50 54 66 65 58 56 57 57 60 64 65 70 72 74 70 61 59 63 64 67 72 84 84 87 86 96 98 100
31 39 32 45 54 67 57 46 32 28 28 24 28 36 39 45 56 53 56 54 56 56 50 48 55 63 66 59 60 60 60 61 66 76 84 85 71 63 61 62 66 75 83 91 85 77 88 97 100
26 30 43 54 57 64 53 45 46 34 32 27 25 24 31 39 46 50 48 47 52 52 52 49 45 50 50 57 60 58 61 69 75 76 75 80 77 74 71 80 83 81 78 77 77 82 100 96 100
32 35 37 43 58 63 64 54 39 34 33 24 23 17 19 27 34 44 48 51 48 48 58 52 50 49 57 62 65 70 72 72 78 83 76 88 88 80 77 72 71 73 82 76 90 98 100 100 100
22 30 35 57 56 63 71 60 31 29 26 19 19 20 22 22 24 29 34 39 51 52 56 63 56 55 52 79 90 93 92 88 77 76 76 76 97 94 82 77 80 93 95 100 100 100 100 100 100

GFSSGP_850_rhum_063.txt.gz
RH
15 22 34 30 29 40 41 31 24 23 18 40 42 46 64 74 71 60 75 86 87 93 88 82 61 51 50 83 80 49 43 43 24 24 34 31 36 26 32 41 36 24 20 26 33 44 54 49 39
16 18 28 29 37 39 33 25 21 20 22 48 50 66 65 70 87 86 89 81 88 88 93 85 66 58 58 56 83 66 44 39 24 22 29 40 29 34 34 24 17 19 29 37 41 48 68 68 57
17 19 23 41 44 39 34 23 20 28 55 47 70 69 69 71 74 72 72 86 83 86 84 83 73 59 55 62 69 85 47 50 28 25 35 30 35 30 21 20 26 32 42 49 51 59 63 62 63
26 25 24 34 32 30 26 20 19 37 37 52 62 77 76 73 72 65 69 80 78 80 68 75 67 61 62 74 91 79 59 32 30 33 29 36 30 22 25 26 26 34 52 62 57 61 60 60 61
27 29 35 32 31 25 21 19 39 50 53 52 61 60 70 85 96 71 68 71 59 82 93 96 72 87 81 84 96 82 76 38 26 33 39 34 27 29 25 24 26 39 58 64 62 62 62 65 62
26 26 39 38 31 23 18 32 42 49 50 51 64 72 76 81 80 82 82 80 77 80 83 85 76 78 80 100 89 91 81 59 45 43 41 33 33 28 28 27 27 43 61 62 60 58 62 61 57
28 35 36 31 30 23 20 38 47 51 53 62 66 74 72 64 58 85 86 99 98 87 92 96 97 97 100 99 98 87 79 58 66 49 44 35 32 32 30 27 27 49 61 55 52 58 64 64 61
22 32 30 29 24 21 24 43 52 52 64 75 75 72 67 49 65 82 96 70 69 72 63 98 100 100 67 86 98 77 74 58 80 57 47 39 37 36 32 25 24 33 56 52 51 52 52 52 52
20 30 35 27 20 17 32 43 51 53 55 77 71 72 71 61 77 85 100 97 79 85 75 95 97 94 86 92 88 75 60 75 73 73 47 43 41 38 31 34 28 25 47 51 50 51 49 48 47
24 32 25 21 17 17 37 52 52 60 65 75 85 73 83 83 96 98 97 99 99 99 100 99 99 100 100 92 85 84 72 78 77 77 63 41 44 39 41 45 40 30 26 33 46 49 48 46 42
20 24 19 15 15 15 46 61 55 70 70 64 73 78 89 89 93 97 100 99 100 98 98 99 100 100 94 90 81 86 80 75 81 77 67 44 47 42 50 51 49 40 33 29 34 43 41 37 38
18 16 16 16 15 28 65 55 65 70 51 55 62 75 86 86 91 96 99 96 99 100 100 99 99 100 98 97 96 83 69 58 62 62 70 46 45 44 52 52 53 50 49 45 43 39 40 41 36
19 19 20 20 19 24 48 61 52 59 52 79 74 80 71 78 79 87 96 98 99 99 98 99 100 99 96 100 95 67 45 56 65 69 58 57 45 48 52 53 53 55 52 53 57 60 61 62 56
22 23 23 19 19 46 56 61 66 50 76 82 84 88 78 67 79 77 93 89 92 100 100 99 100 100 98 84 70 51 65 71 77 69 64 58 45 49 52 53 56 57 54 57 63 62 65 68 68
22 25 25 21 19 45 44 56 69 48 82 84 94 89 80 79 87 70 90 87 84 100 98 100 100 100 97 87 76 65 65 66 62 68 67 57 47 47 52 53 52 56 55 64 68 70 69 70 70
26 26 30 20 17 22 33 37 42 54 76 94 97 92 86 85 84 81 90 92 90 99 99 100 100 100 94 100 91 65 85 79 71 62 64 55 46 42 42 39 47 49 59 65 72 75 76 78 72
34 34 30 27 20 23 38 39 41 58 69 86 93 94 93 87 84 88 93 93 87 92 99 100 100 99 99 100 97 100 98 78 64 76 52 47 45 44 44 40 49 56 66 76 77 80 78 80 79
38 37 31 31 25 39 48 45 48 68 77 82 87 90 95 84 69 67 73 96 97 91 98 100 99 100 100 99 96 94 73 81 89 68 55 57 51 49 48 47 58 72 78 79 80 82 82 82 83
28 32 35 31 25 37 47 40 48 65 78 70 85 90 81 78 70 73 68 78 99 98 96 98 99 100 100 95 94 93 88 88 84 71 55 57 50 62 63 60 70 73 71 74 78 83 85 86 84
34 36 35 30 26 35 36 41 46 71 66 63 74 85 79 80 73 77 58 66 96 99 98 98 97 100 94 92 83 76 99 85 79 60 58 53 53 61 75 70 64 69 66 73 84 85 86 88 87
35 36 34 32 27 27 42 45 46 50 57 61 68 67 77 69 68 68 50 54 76 79 97 100 99 93 88 86 92 98 92 76 65 60 55 53 52 74 75 70 71 66 55 57 60 73 85 84 88
38 30 30 31 34 39 33 50 33 51 60 60 63 66 73 67 63 69 55 51 48 49 69 89 95 87 78 81 80 86 86 75 66 60 57 56 64 60 58 54 46 54 72 65 53 64 76 81 84
34 29 33 35 35 32 32 40 33 56 61 56 56 59 63 59 56 59 56 40 39 44 45 68 80 76 70 70 70 69 72 69 63 59 64 64 60 57 59 43 41 51 53 72 81 77 76 75 78
27 30 33 38 42 53 39 38 42 60 46 46 42 55 54 63 57 54 58 57 44 43 42 50 70 70 72 72 70 73 80 73 66 68 59 55 53 55 58 50 42 49 61 72 79 80 76 74 79
32 35 56 57 57 54 38 44 33 30 42 35 39 43 51 58 62 56 60 61 50 42 43 42 53 57 66 69 72 72 75 67 68 67 63 57 50 50 48 46 38 59 67 74 82 78 81 89 89
38 38 63 59 63 54 45 57 39 32 26 24 26 36 43 58 59 57 52 54 57 43 38 38 40 44 48 52 53 57 59 61 60 53 50 46 45 44 42 41 42 45 59 71 76 85 95 78 91
38 44 33 44 55 72 59 49 34 28 27 29 27 36 45 53 55 52 53 53 54 53 42 38 39 38 38 36 35 36 39 46 47 52 50 49 47 49 59 62 62 65 66 67 75 88 82 72 87
29 32 44 57 58 66 54 54 45 34 29 30 28 36 40 43 46 45 55 57 52 49 50 46 44 42 39 42 44 43 43 46 48 49 49 50 58 73 85 80 75 68 65 69 82 78 76 86 100
36 40 41 43 58 52 56 57 42 35 32 36 33 22 28 37 39 40 40 47 49 53 58 56 49 52 52 49 51 52 54 55 57 61 64 66 75 78 80 82 93 84 79 78 82 83 97 100 99
29 35 38 53 56 67 64 45 33 35 32 32 23 20 19 21 29 33 37 46 55 53 57 60 58 54 54 65 67 71 68 64 63 66 68 72 80 87 93 73 88 100 99 91 93 99 97 97 99

GFSSGP_850_rhum_069.txt.gz
RH
17 25 27 26 18 22 22 21 23 20 27 28 50 50 42 56 44 43 78 98 94 83 73 74 70 64 59 52 47 53 64 63 66 62 57 47 46 48 48 56 78 77 72 60 87 97 91 51 53
16 21 26 23 21 21 20 20 19 17 26 47 60 68 58 43 68 73 92 99 92 88 88 79 65 66 59 51 52 56 63 69 62 65 57 50 50 47 46 74 79 74 53 42 70 72 31 27 24
17 22 23 24 28 21 20 20 17 17 22 47 53 63 64 53 65 77 85 95 100 98 87 67 71 75 61 59 54 56 65 57 62 68 59 52 56 53 68 84 81 55 25 30 36 25 25 26 21
27 24 24 24 23 22 20 17 19 19 38 52 66 55 60 56 56 72 83 86 98 100 66 72 72 76 62 54 53 52 46 59 69 65 57 53 53 51 77 82 56 64 85 82 39 34 18 18 15
29 25 26 26 24 23 21 20 20 29 42 49 61 47 57 51 55 61 70 81 86 100 83 76 79 74 67 58 55 52 51 51 51 40 32 52 38 61 76 79 82 86 87 76 30 18 17 15 14
24 26 26 23 22 21 20 20 29 41 42 52 55 57 57 52 60 73 67 71 68 100 98 88 78 70 68 69 69 62 56 56 46 51 45 41 42 70 78 75 58 58 61 51 38 36 21 19 18
24 23 23 25 24 22 16 35 38 37 43 43 58 60 65 64 66 65 70 83 86 100 100 89 80 72 73 78 72 69 75 69 47 42 60 32 58 66 76 56 51 59 56 52 51 33 35 28 22
23 24 30 27 23 19 15 37 38 47 39 50 59 57 59 56 56 52 69 99 100 92 97 88 86 78 83 85 79 83 87 88 72 72 63 43 64 69 62 51 55 57 61 60 56 46 42 35 29
23 25 26 23 24 17 17 24 41 46 52 60 62 66 66 70 65 90 99 99 99 90 91 81 92 82 88 90 98 100 100 92 75 72 71 46 72 71 48 53 54 59 59 63 59 50 43 37 32
22 27 24 20 19 16 16 21 33 49 56 58 69 66 62 77 93 98 96 97 86 81 85 79 82 99 95 99 99 99 92 86 77 74 75 42 49 45 46 57 55 53 60 67 62 49 41 34 32
26 22 21 18 17 17 18 34 50 52 44 48 55 56 60 81 95 91 89 86 86 86 94 94 87 87 88 87 85 95 87 91 73 84 60 49 34 59 58 58 53 55 66 69 57 49 41 35 33
23 20 19 17 16 22 22 39 51 56 38 37 46 62 67 78 93 90 88 84 98 97 98 97 98 88 98 100 100 100 99 94 93 72 52 40 44 58 57 58 53 48 51 51 49 46 40 39 35
22 18 19 17 20 23 28 34 39 53 38 48 54 63 73 82 89 89 90 84 88 99 87 100 97 91 94 100 99 100 87 75 76 73 49 39 37 38 53 55 54 51 50 49 45 38 40 37 37
20 19 20 24 22 23 32 39 58 38 38 54 61 74 83 85 83 85 89 95 84 85 97 98 100 100 99 100 100 98 95 75 66 66 45 41 37 36 29 37 49 47 45 42 36 38 38 36 38
24 26 22 20 21 26 48 38 52 36 44 63 73 86 86 83 85 84 74 97 89 85 100 99 99 98 99 99 94 91 84 86 79 70 53 41 45 39 31 29 36 38 40 38 47 63 64 60 47
26 27 25 18 26 42 40 30 22 34 63 68 86 92 93 86 82 90 72 75 97 88 97 100 100 98 99 97 94 97 94 89 86 72 58 48 49 45 43 37 36 44 58 59 64 65 64 69 64
33 28 28 22 22 41 33 27 28 43 65 62 75 88 91 89 84 87 82 75 93 98 99 100 96 100 100 99 100 99 98 98 92 63 62 49 46 51 51 47 52 60 59 64 66 63 71 70 68
24 34 32 25 23 27 35 28 24 37 65 62 64 81 90 89 78 82 80 77 83 99 98 96 100 100 100 98 100 100 100 95 93 93 79 57 48 54 58 61 61 62 61 69 69 65 74 76 79
26 30 27 26 24 23 25 27 24 30 62 62 65 71 83 76 86 85 79 72 86 91 99 99 100 100 99 100 100 99 98 84 89 80 76 65 53 51 60 62 64 62 64 59 59 61 76 77 79
29 31 30 26 26 26 22 26 22 34 43 47 50 64 75 84 83 87 76 60 76 88 97 96 92 98 99 100 90 91 84 73 81 80 97 91 60 52 58 60 62 59 58 55 46 56 66 78 84
33 32 30 27 28 26 30 30 25 23 45 53 59 60 66 67 72 81 76 64 61 79 88 86 96 98 100 100 98 99 94 88 100 91 97 94 71 61 59 58 62 58 58 58 56 58 60 73 77
37 29 28 31 31 26 32 37 32 23 25 37 39 57 63 66 68 73 69 61 51 51 75 84 88 93 98 100 100 99 95 97 87 86 96 100 88 68 62 62 64 60 62 56 61 65 59 62 67
28 30 31 30 33 34 30 37 32 33 26 22 23 34 45 52 48 58 66 56 54 44 58 68 87 84 91 92 97 95 99 88 97 99 96 86 81 73 73 68 65 83 61 71 69 70 55 69 77
27 30 35 42 41 49 38 35 33 28 26 23 21 23 22 42 43 45 59 68 60 54 44 55 64 70 82 89 92 90 93 93 93 88 74 73 79 81 86 70 71 70 59 74 65 54 56 57 67
29 35 44 55 57 48 38 39 31 27 23 24 23 23 22 26 43 48 54 62 63 58 46 41 45 56 60 72 75 84 88 89 84 84 74 73 72 70 68 65 62 60 67 66 49 51 53 51 54
38 35 45 46 55 44 42 44 30 27 27 28 26 24 23 26 31 39 40 48 51 50 54 42 38 46 57 60 65 70 77 84 88 86 81 75 77 66 62 61 60 59 60 61 57 59 57 54 55
42 44 34 46 53 55 41 37 31 29 28 26 25 26 23 23 26 29 44 46 45 45 47 49 40 38 47 55 59 62 66 73 75 77 81 78 71 62 60 62 62 60 58 57 58 59 59 53 63
33 33 48 52 51 50 43 46 32 29 22 22 23 25 23 24 25 31 35 40 42 42 41 47 50 40 34 44 53 53 55 62 68 75 80 78 73 68 63 60 58 58 60 64 62 59 56 55 66
38 38 42 40 49 45 46 38 38 31 26 27 30 26 25 19 22 27 32 41 48 44 44 44 49 51 46 38 41 45 45 47 54 59 64 66 71 71 69 66 64 64 65 60 58 55 55 70 79
30 35 38 50 46 57 54 41 27 34 33 30 29 23 23 22 18 23 31 35 44 42 40 37 47 50 52 49 41 40 42 39 40 39 33 33 33 40 40 51 54 56 52 48 47 52 68 86 91

GFSSGP_850_rhum_072.txt.gz
RH
16 23 24 26 15 13 13 12 13 14 16 19 31 28 23 27 26 28 83 64 96 100 100 70 67 71 75 62 68 61 64 69 62 56 46 39 34 32 39 37 68 82 80 74 86 82 80 67 75
18 23 28 18 15 12 12 13 13 13 15 24 35 40 35 30 48 58 81 85 88 100 100 95 80 83 68 70 70 70 71 69 63 56 45 39 39 44 48 54 80 85 84 76 84 54 56 55 64
16 22 18 14 13 12 12 13 13 14 17 22 29 44 37 36 59 77 96 94 94 99 98 96 87 84 81 86 76 76 72 71 65 58 46 44 53 59 48 73 83 83 84 79 63 34 29 32 38
24 21 18 15 13 13 13 12 13 13 23 29 31 26 50 62 68 92 90 88 92 93 97 88 84 70 51 86 81 70 72 74 67 57 51 53 55 59 45 83 78 70 38 53 48 26 28 29 22
25 17 12 13 13 13 13 13 14 14 23 27 35 21 34 67 83 92 75 84 91 87 91 57 60 75 67 68 87 88 81 73 69 61 55 53 52 60 67 86 70 43 40 37 23 25 22 20 16
17 17 13 10 12 13 13 14 14 18 22 29 32 31 33 77 81 94 71 72 78 90 98 74 91 74 78 83 80 62 74 70 73 65 58 54 50 45 87 74 71 74 46 37 22 17 17 18 16
14 12 10 10 12 14 13 18 20 18 18 19 31 30 40 70 66 61 75 70 75 94 99 90 87 89 72 78 82 77 72 66 80 66 62 62 37 42 73 65 80 82 60 22 20 18 17 16 18
16 13 13 11 12 13 12 16 22 22 18 43 39 26 30 72 52 50 53 90 98 94 98 99 90 88 78 71 78 77 84 83 78 64 55 49 50 58 72 66 71 75 51 38 24 22 21 21 22
19 14 13 11 12 12 12 14 19 31 28 44 48 50 65 62 63 64 84 96 99 95 98 100 94 88 81 86 87 85 84 83 84 74 65 38 52 81 65 48 70 64 54 36 38 33 27 27 26
14 13 11 9 10 12 12 16 18 23 20 30 39 63 66 64 85 84 97 99 96 95 95 89 86 84 78 75 94 100 93 99 99 95 78 72 84 78 82 49 61 63 58 48 45 38 32 39 33
13 13 9 12 12 13 12 14 21 21 17 16 24 44 77 80 83 79 86 99 100 94 83 83 72 75 79 86 97 90 99 100 97 88 86 72 86 81 59 60 69 70 65 58 49 39 60 73 73
15 13 10 11 12 14 14 15 18 20 21 39 42 51 67 76 74 79 86 92 100 88 97 88 85 89 81 93 100 98 99 99 88 82 81 56 98 74 62 77 88 91 89 80 72 76 76 75 72
17 10 12 13 14 14 16 18 15 18 26 45 55 62 69 69 72 81 84 96 94 98 98 98 99 99 86 85 89 86 86 98 96 97 87 81 86 61 59 90 91 89 88 91 82 78 67 50 46
13 13 12 11 13 15 17 14 24 15 28 44 60 56 61 67 73 75 80 84 96 97 99 99 99 100 91 97 99 99 98 99 92 89 84 59 58 51 54 55 88 88 89 86 76 70 68 56 66
15 16 12 12 13 12 16 16 16 18 41 42 56 57 62 68 73 78 80 83 99 95 98 100 98 88 98 99 100 100 99 98 97 81 76 46 41 39 45 54 58 76 77 77 70 73 64 63 64
17 16 17 10 11 17 26 16 12 26 36 38 46 55 65 70 75 77 83 82 95 92 95 99 99 100 100 100 99 100 94 98 90 85 72 47 40 40 44 54 58 69 64 64 63 60 49 62 58
19 18 18 15 13 16 23 16 16 30 31 28 39 50 60 64 74 79 84 83 94 98 97 100 99 99 100 100 100 100 98 86 86 83 59 37 44 42 40 57 73 37 43 58 63 64 69 63 60
20 20 16 16 13 18 18 17 13 16 24 28 32 42 53 60 65 78 89 78 92 98 97 98 90 100 100 99 100 100 100 85 74 81 64 38 43 40 32 51 42 38 65 63 67 67 72 67 65
17 16 16 12 13 18 16 16 14 13 21 25 32 36 46 55 60 76 91 84 59 90 98 99 92 98 100 100 99 96 96 92 80 80 74 44 49 51 41 61 37 50 65 74 66 73 75 72 76
20 19 18 14 16 19 13 13 11 14 16 18 19 31 36 48 61 77 89 93 86 71 95 100 95 100 100 100 99 100 100 100 98 82 72 52 56 51 48 45 44 59 68 84 62 73 72 75 72
23 22 20 18 15 16 17 15 12 14 15 19 25 26 32 42 59 74 84 90 88 56 81 99 95 99 100 100 100 100 100 100 100 100 84 66 77 61 54 59 63 63 65 56 64 69 70 64 67
26 18 21 20 22 22 19 18 13 17 16 14 16 26 32 37 52 66 77 84 86 78 54 90 94 94 92 96 99 93 99 98 91 93 96 95 88 84 54 67 73 71 63 64 61 59 59 67 72
22 16 22 22 23 23 21 19 14 15 20 16 13 14 25 36 46 59 70 75 82 83 45 61 81 98 93 98 95 97 100 95 87 79 82 89 90 84 69 74 78 75 66 66 75 67 63 61 67
21 24 24 24 24 36 24 20 17 16 18 15 13 13 14 30 41 53 64 74 78 84 72 51 80 93 88 96 97 99 99 99 98 86 84 89 88 84 76 81 78 79 68 71 78 69 68 59 70
22 25 35 41 42 39 20 24 19 18 16 16 16 15 16 26 38 47 59 70 75 83 74 76 92 93 97 98 99 95 98 98 96 88 89 85 96 86 75 75 81 71 62 72 61 76 76 68 70
25 25 32 41 40 32 27 30 22 17 16 20 20 18 18 23 35 44 52 64 72 81 77 45 84 85 93 97 98 99 100 98 98 93 91 76 84 84 72 70 67 67 72 67 75 90 62 72 56
29 32 23 31 36 43 28 25 21 18 18 16 17 19 18 18 26 41 48 61 69 77 82 54 76 79 87 92 96 98 97 99 99 98 99 88 79 83 72 73 74 71 75 73 84 66 65 68 69
26 23 40 36 49 47 29 28 25 22 20 15 15 15 16 20 25 36 46 58 66 75 83 72 76 72 79 73 72 84 84 72 88 96 96 92 91 88 84 75 77 82 88 88 86 79 84 88 87
31 35 30 29 33 40 40 29 20 20 19 18 18 18 19 22 24 35 43 53 65 70 80 82 84 76 48 40 67 60 59 63 59 61 83 94 97 95 89 85 84 84 81 82 84 86 88 87 89
24 29 30 40 38 34 35 32 19 20 22 25 22 18 22 23 21 28 43 53 62 68 73 76 81 80 60 41 36 37 47 55 57 54 55 62 72 94 93 93 89 82 79 75 84 86 89 83 89

GFSSGP_850_rhum_075.txt.gz
RH
12 17 27 20 14 10 10 9 8 9 10 12 16 16 16 17 18 27 61 82 89 85 92 77 64 65 82 89 83 72 63 55 55 52 50 41 37 47 48 42 47 74 66 73 86 87 80 64 70
27 27 24 16 12 10 9 9 9 9 10 14 17 16 16 18 24 29 51 85 91 92 93 97 68 77 88 87 87 80 68 58 60 55 48 41 38 60 48 70 78 74 69 79 84 81 75 67 72
27 24 18 12 12 11 10 9 9 9 12 12 14 20 21 24 34 50 84 78 93 96 98 98 76 80 93 100 98 90 75 64 62 56 46 39 40 64 72 78 78 75 62 70 81 73 62 73 68
20 16 14 12 10 9 10 8 9 9 11 15 15 15 26 48 46 64 80 88 94 99 100 88 70 62 77 84 70 97 82 71 66 56 45 39 44 59 70 84 80 73 62 58 51 42 51 58 64
20 14 12 11 10 8 9 8 9 10 10 14 17 15 16 44 60 69 79 87 88 97 98 85 72 63 43 55 71 60 93 78 68 56 45 43 49 54 66 83 76 69 51 47 24 22 39 51 45
15 12 13 11 8 8 9 10 10 10 11 14 18 17 19 51 58 69 84 89 79 96 84 82 67 56 60 70 69 80 99 86 69 56 49 51 52 50 71 85 76 52 31 34 20 26 30 25 29
15 12 12 9 8 8 9 11 12 13 13 11 15 18 23 46 64 73 82 94 89 64 78 96 90 86 78 72 67 85 99 91 72 58 54 57 58 75 52 77 48 32 26 22 21 18 20 16 23
13 10 12 9 9 8 9 11 12 14 12 19 16 17 19 50 64 72 83 87 89 83 82 90 92 99 97 80 85 96 90 99 81 68 61 64 65 84 41 64 72 44 33 19 16 15 17 16 22
14 13 13 10 9 8 8 10 12 15 15 14 21 27 43 63 67 70 86 100 86 85 98 98 92 93 94 93 89 97 93 93 95 84 72 71 73 84 66 85 80 62 23 18 17 17 19 21 22
12 12 11 7 7 8 7 10 12 12 12 14 16 24 56 64 60 60 70 88 99 97 90 92 96 84 83 95 78 82 83 96 100 92 77 85 89 83 83 75 89 60 33 24 22 22 24 28 29
12 13 9 8 8 8 8 9 10 12 13 12 17 15 39 59 56 54 56 80 87 94 100 99 96 91 95 95 83 85 81 86 100 88 75 84 87 81 83 77 91 54 34 37 30 30 46 71 67
12 10 9 9 8 9 9 9 10 12 13 14 23 26 37 51 50 48 57 65 86 97 97 92 95 73 75 85 85 86 95 74 100 86 84 96 90 84 70 83 82 55 46 45 37 55 69 73 71
11 10 9 8 8 9 10 10 10 12 11 12 22 34 38 45 44 47 55 65 81 99 97 95 91 80 82 79 77 100 100 99 98 98 97 98 93 83 84 86 85 76 79 71 66 71 73 73 74
10 10 10 10 9 9 9 10 10 10 12 16 23 35 36 43 43 43 53 58 87 100 97 96 94 92 97 75 81 98 100 100 99 100 96 98 85 82 81 83 87 81 80 77 70 73 74 69 69
12 13 11 11 10 9 10 12 10 9 10 15 19 34 34 41 45 43 48 56 66 98 97 94 91 91 100 86 88 92 91 90 95 99 99 84 72 72 86 79 79 74 75 75 70 72 64 62 64
16 15 17 11 10 9 10 14 9 11 17 20 24 32 36 42 47 46 55 58 64 92 98 95 88 95 96 98 84 87 94 100 99 95 98 86 94 78 82 85 80 80 78 76 68 64 60 60 60
18 20 16 14 10 10 12 15 10 16 18 18 22 28 36 40 48 48 55 58 64 85 100 94 89 99 99 100 100 99 99 98 100 98 83 74 67 71 69 74 78 78 76 70 66 63 61 60 58
21 18 16 16 11 11 13 16 11 12 16 18 19 24 32 38 44 50 58 58 65 77 98 91 98 100 99 99 100 100 100 99 96 94 82 64 78 63 54 56 68 72 74 69 67 68 68 64 59
18 17 16 13 10 12 14 12 10 10 10 15 17 20 27 34 38 47 61 64 69 80 96 98 99 98 100 99 99 100 99 97 92 72 66 71 77 60 60 60 50 50 64 62 72 78 76 74 69
20 20 18 14 11 15 13 12 9 9 10 11 13 16 21 28 37 47 63 70 74 80 97 95 99 95 99 99 98 100 99 95 98 72 72 62 43 45 64 69 82 64 75 82 86 87 84 82 78
23 24 22 19 14 13 16 16 12 10 9 10 11 13 15 22 33 44 58 69 78 78 93 98 94 89 95 100 100 100 100 100 98 88 81 47 45 48 55 72 54 47 68 68 73 68 73 85 85
29 19 19 19 19 22 14 20 13 10 9 10 13 14 16 19 26 40 54 64 72 75 85 97 96 93 95 98 96 97 98 98 94 81 78 64 44 48 62 51 50 40 46 66 66 79 62 69 69
25 19 19 18 22 23 20 20 16 12 11 11 12 11 13 18 24 37 49 57 66 72 82 86 98 99 98 99 99 98 100 99 100 97 76 79 51 53 58 75 60 46 54 64 67 75 62 64 76
19 19 20 19 23 31 23 23 20 14 14 14 11 11 11 16 23 33 44 54 60 67 79 86 91 98 100 99 98 98 99 99 100 100 99 85 60 65 85 76 60 54 64 68 72 72 72 68 76
19 24 36 38 36 37 20 23 21 14 13 13 13 12 12 15 22 30 41 51 56 65 76 83 89 90 98 97 98 96 99 98 98 99 91 99 84 69 69 84 75 64 70 75 72 72 68 67 66
24 25 33 46 45 33 20 25 18 13 12 13 14 14 13 17 22 26 34 47 54 64 72 79 78 79 89 99 98 98 99 100 100 99 92 96 87 86 79 76 78 67 68 77 74 77 78 70 73
33 30 20 29 35 42 30 22 17 16 15 14 14 15 14 15 17 26 30 41 51 61 70 75 68 69 75 92 98 98 98 99 98 100 99 97 87 75 79 67 63 62 62 74 76 76 72 71 76
27 26 33 30 52 52 33 25 29 20 18 15 14 14 15 14 17 20 30 37 48 56 66 77 71 64 67 80 88 91 94 97 93 97 96 97 96 77 74 81 76 64 67 74 76 75 69 61 65
29 31 32 29 31 45 48 34 18 18 17 17 17 16 16 18 20 23 30 34 45 52 63 75 78 65 65 71 82 86 88 90 94 92 94 91 93 90 90 81 83 72 68 73 76 77 76 71 72
24 25 31 43 43 35 36 35 17 18 21 20 21 20 18 19 18 20 26 32 40 51 58 68 76 71 64 69 79 84 87 88 90 91 93 91 91 94 92 97 84 86 89 78 81 73 81 77 85